GFSNGP_925_temp_000.txt.gz
Temp
12 12 12 13 12 12 11 11 12 13 12 13 12 11 11 11 10 10 11 10 9 8 9 9 8 8 7 7 6 5 5 4 4 3 2 2 2 2 2 2 1 2 2 2
10 11 10 10 11 11 11 11 10 11 11 12 12 12 10 10 10 10 9 8 8 8 8 7 8 6 6 5 5 4 3 3 3 3 2 1 1 2 2 2 2 2 1 1
9 9 8 10 12 11 12 12 12 12 13 12 12 11 10 11 9 8 7 7 7 7 8 8 6 6 6 5 4 3 2 2 1 2 2 3 2 2 1 1 1 1 1 0
7 10 10 13 14 14 12 12 12 11 10 11 11 10 9 8 8 7 6 7 7 8 8 6 6 5 4 4 3 2 1 2 2 2 2 2 1 1 1 0 -0 -1 -1 -2
10 11 10 13 13 15 13 11 13 12 11 11 10 9 10 7 6 6 6 6 7 7 6 6 5 4 3 3 2 2 2 2 2 1 1 1 0 -0 -1 -1 -1 -2 -3 -3
8 10 10 12 13 13 12 10 12 13 12 12 9 9 10 7 6 6 7 7 6 7 6 5 5 4 4 3 2 2 2 1 1 1 0 -1 -1 -1 -2 -2 -3 -4 -4 -4
10 9 8 10 10 12 11 11 12 11 10 9 8 7 5 5 6 8 7 7 7 6 5 5 4 4 4 3 2 1 1 1 1 -0 -1 -2 -2 -2 -3 -3 -4 -4 -5 -5
6 8 8 10 12 12 11 11 10 10 9 8 6 5 5 6 6 7 7 7 7 5 4 4 4 3 2 0 2 1 1 0 0 -1 -1 -2 -3 -3 -3 -4 -5 -5 -6 -6
10 9 10 12 12 11 11 9 8 8 6 5 4 5 5 5 6 7 6 6 6 4 3 4 3 2 1 3 1 1 0 0 -0 -1 -2 -2 -3 -3 -4 -5 -5 -6 -7 -7
10 11 11 12 12 10 8 7 6 5 5 5 5 5 5 5 5 6 6 5 4 3 3 3 4 3 2 2 1 1 0 -0 -1 -2 -2 -3 -3 -4 -5 -5 -6 -7 -7 -8
9 11 10 10 7 7 6 6 6 5 6 6 5 4 4 4 4 4 4 4 4 3 3 3 4 3 3 2 1 0 -0 -1 -1 -2 -3 -3 -4 -4 -5 -5 -6 -7 -7 -8
11 11 9 10 8 7 7 6 6 6 5 6 5 4 4 4 4 4 3 4 3 3 2 3 2 2 2 1 0 -0 -0 -1 -2 -2 -3 -4 -5 -5 -5 -6 -7 -7 -8 -8
10 11 10 7 7 6 6 6 6 6 5 4 5 4 4 3 3 2 2 3 2 2 2 2 1 1 0 -0 -0 -1 -1 -2 -3 -3 -4 -4 -5 -6 -6 -6 -7 -7 -8 -9
10 9 7 6 6 7 7 7 6 6 6 5 4 3 2 1 1 1 1 1 2 2 1 0 -0 -1 -1 -1 -2 -2 -3 -3 -4 -4 -4 -5 -5 -6 -7 -8 -9 -8 -9 -10
6 5 5 6 7 6 6 5 3 3 3 2 3 1 1 -0 -0 0 1 1 1 0 -0 -1 -2 -2 -3 -3 -3 -3 -3 -4 -4 -4 -5 -5 -6 -6 -7 -8 -8 -9 -9 -10
4 5 5 4 4 4 3 3 2 1 1 1 1 0 0 -1 -1 -1 -0 -0 -1 -1 -2 -3 -3 -4 -3 -3 -4 -4 -4 -4 -4 -5 -5 -6 -6 -7 -7 -8 -8 -9 -10 -11
4 5 5 4 3 3 3 3 2 1 1 0 1 1 -2 -3 -2 -1 -1 -2 -2 -3 -3 -3 -4 -5 -4 -3 -4 -4 -4 -4 -5 -5 -6 -6 -7 -7 -8 -8 -9 -10 -10 -11
5 5 5 4 3 2 1 3 3 2 1 1 -0 -2 -2 -2 -3 -2 -2 -3 -3 -3 -3 -4 -4 -4 -3 -3 -3 -4 -4 -5 -5 -6 -6 -7 -7 -7 -8 -8 -9 -10 -10 -11
5 4 4 3 3 2 2 2 2 2 1 -1 -2 -2 -2 -2 -3 -3 -3 -4 -4 -5 -4 -4 -4 -4 -4 -4 -4 -4 -4 -5 -5 -6 -6 -7 -7 -8 -8 -9 -9 -10 -11 -11
3 3 3 3 3 3 1 2 1 0 1 -1 0 -2 -2 -2 -2 -3 -3 -3 -3 -3 -3 -4 -4 -4 -4 -4 -5 -5 -5 -5 -6 -6 -6 -7 -7 -8 -8 -9 -9 -10 -11 -11
1 2 2 1 1 1 1 1 -0 -1 0 -1 -1 -1 -2 -2 -3 -3 -3 -4 -2 -2 -3 -4 -4 -4 -5 -5 -5 -5 -5 -5 -6 -6 -6 -7 -7 -8 -8 -9 -9 -10 -11 -11
2 1 0 1 -0 -0 1 0 -0 -0 -0 -1 -1 -2 -2 -2 -3 -3 -2 -3 -2 -3 -3 -3 -4 -4 -4 -5 -5 -6 -6 -6 -6 -6 -6 -7 -7 -8 -8 -9 -9 -10 -10 -11
1 1 1 0 -0 -1 -1 -1 -0 -0 -1 -2 -2 -2 -2 -2 -2 -3 -4 -2 -2 -3 -3 -3 -4 -4 -5 -5 -5 -6 -6 -6 -6 -6 -6 -7 -7 -8 -8 -8 -9 -10 -10 -11
1 1 1 1 -1 -2 -3 -1 -1 -1 -0 -1 -1 -1 -2 -2 -2 -2 -3 -3 -2 -3 -3 -4 -4 -4 -5 -5 -5 -5 -6 -6 -6 -6 -7 -7 -7 -8 -8 -8 -9 -9 -10 -11
1 0 -0 -1 -2 -2 -2 -2 -2 -2 -1 -1 -1 -1 -2 -2 -2 -2 -2 -3 -3 -3 -3 -4 -4 -5 -5 -5 -5 -5 -5 -6 -5 -6 -6 -7 -7 -8 -8 -8 -9 -9 -10 -10
-0 -1 -1 -1 -1 -1 -1 -1 -2 -1 -1 -2 -1 -1 -1 -2 -2 -3 -2 -2 -3 -3 -4 -4 -4 -5 -5 -5 -5 -5 -5 -5 -5 -6 -6 -7 -7 -7 -8 -8 -8 -9 -9 -10
-1 -3 -3 -3 -2 -1 -1 -2 -1 -1 -1 -1 -2 -1 -2 -2 -2 -3 -3 -4 -4 -3 -4 -4 -5 -5 -5 -6 -6 -6 -6 -6 -6 -6 -6 -6 -7 -7 -7 -8 -8 -8 -9 -10

GFSNGP_925_temp_003.txt.gz
Temp
13 14 13 14 14 13 13 14 13 15 15 16 16 15 14 14 14 14 14 12 11 10 10 9 8 7 7 6 5 5 4 3 2 2 2 1 1 2 2 2 2 1 0 0
11 11 11 11 12 12 13 13 13 14 13 15 14 13 13 13 13 13 11 9 9 8 8 8 7 6 5 5 4 4 2 2 2 2 2 2 2 1 1 1 0 1 1 0
12 10 10 12 13 13 13 13 14 14 16 13 14 13 14 13 12 9 8 7 8 8 8 8 7 5 5 4 4 3 2 3 2 2 2 1 1 1 0 -0 -1 -1 -1 -2
11 11 12 16 14 14 14 14 14 13 13 13 13 13 12 9 8 7 6 6 8 9 8 7 6 5 5 4 4 3 3 2 2 1 1 0 0 -0 -1 -1 -2 -2 -2 -3
10 12 12 14 15 14 13 14 13 13 13 13 13 12 11 7 6 6 5 6 8 8 7 6 5 4 4 3 2 2 2 2 1 0 0 -0 -1 -1 -2 -2 -2 -3 -3 -4
9 11 11 13 13 12 13 13 13 13 13 13 12 9 11 5 6 6 6 7 8 8 6 5 5 5 3 3 2 2 1 1 1 0 -1 -1 -2 -2 -3 -3 -3 -4 -5 -5
11 10 11 12 11 12 12 11 11 12 12 10 9 7 5 5 6 7 7 7 7 6 5 5 5 4 3 2 1 1 1 1 1 0 -0 -1 -2 -2 -3 -3 -4 -5 -6 -6
8 9 10 11 12 12 12 10 10 10 8 7 6 6 6 6 7 7 7 7 6 5 5 5 4 3 3 2 2 1 0 1 -0 -0 -1 -1 -2 -3 -3 -4 -5 -5 -6 -6
10 11 11 11 12 11 9 9 7 6 6 5 5 6 7 7 7 6 6 6 5 5 4 4 4 3 3 3 2 1 1 -0 -1 -1 -1 -2 -3 -3 -4 -4 -5 -5 -5 -6
11 12 12 12 10 9 7 8 6 7 6 6 6 7 6 6 6 5 5 5 4 4 4 3 4 3 2 2 1 1 -0 -0 -1 -2 -2 -2 -3 -4 -4 -5 -5 -6 -6 -7
10 12 11 10 9 10 7 6 6 6 7 7 6 7 6 6 5 5 4 3 3 3 3 3 3 3 2 2 1 -0 -1 -1 -2 -2 -3 -3 -4 -5 -5 -6 -7 -7 -7 -7
11 11 10 10 8 7 7 7 7 7 6 6 6 6 5 5 4 3 3 3 2 2 2 2 1 1 1 1 -0 -1 -1 -2 -2 -3 -4 -4 -4 -5 -5 -6 -7 -8 -8 -9
11 9 8 7 7 7 7 7 6 6 6 6 5 4 3 3 3 2 2 2 2 2 1 0 1 -0 -0 -1 -1 -2 -2 -2 -3 -3 -4 -5 -5 -6 -6 -7 -7 -8 -9 -9
9 7 6 7 6 7 7 7 6 5 5 5 4 3 2 2 2 2 1 1 0 0 -0 -0 -1 -1 -2 -2 -3 -3 -3 -3 -4 -5 -5 -6 -6 -7 -8 -8 -8 -9 -9 -10
6 6 6 6 6 6 6 5 5 5 4 4 3 2 2 2 2 1 0 -0 -1 -1 -1 -2 -2 -3 -3 -3 -3 -3 -4 -4 -4 -5 -5 -6 -6 -7 -8 -8 -8 -9 -9 -10
5 5 6 5 6 6 5 5 4 5 4 4 3 2 1 -0 -1 -2 -1 -1 -2 -2 -2 -3 -3 -3 -3 -3 -4 -4 -5 -4 -5 -5 -6 -6 -7 -7 -7 -8 -8 -9 -10 -11
5 5 5 5 5 4 4 4 3 3 2 2 2 1 -2 -2 -2 -2 -2 -2 -2 -3 -3 -3 -3 -3 -3 -3 -3 -4 -4 -5 -5 -6 -6 -7 -7 -8 -8 -8 -9 -9 -10 -12
5 5 4 3 3 3 3 2 1 1 1 1 0 -1 -2 -2 -2 -2 -2 -3 -3 -3 -3 -3 -4 -4 -3 -4 -4 -4 -4 -5 -5 -6 -6 -7 -7 -8 -9 -9 -9 -10 -10 -11
4 3 3 2 2 1 1 1 1 1 0 0 -1 -2 -1 -1 -1 -2 -2 -3 -3 -4 -3 -4 -4 -4 -4 -4 -5 -5 -5 -5 -5 -6 -6 -7 -8 -8 -9 -9 -9 -10 -11 -11
3 3 3 3 3 2 0 1 0 -1 -1 -1 -1 -3 -2 -0 -1 -2 -2 -3 -2 -3 -3 -3 -4 -4 -4 -5 -5 -5 -6 -6 -6 -6 -7 -7 -8 -8 -8 -9 -9 -10 -11 -11
1 2 2 1 1 1 1 -0 -1 -2 -1 -2 -3 -3 -2 -1 -2 -2 -4 -3 -2 -2 -2 -3 -3 -4 -5 -5 -5 -5 -6 -6 -6 -6 -7 -8 -8 -8 -8 -9 -9 -10 -10 -11
2 1 1 1 -0 -1 0 -1 -2 -2 -2 -2 -2 -2 -2 -2 -2 -2 -2 -3 -2 -2 -3 -2 -3 -4 -4 -5 -5 -5 -6 -6 -6 -6 -7 -7 -8 -8 -8 -9 -9 -10 -10 -11
1 1 0 -0 -1 -1 -1 -0 -0 -1 -2 -2 -3 -3 -3 -2 -2 -2 -2 -1 -1 -2 -3 -3 -3 -4 -4 -5 -5 -5 -6 -6 -6 -6 -6 -7 -8 -8 -8 -9 -9 -9 -10 -10
1 1 0 1 -1 -2 -2 -0 -0 -1 -3 -3 -2 -2 -2 -2 -2 -2 -2 -2 -2 -2 -2 -3 -3 -4 -4 -5 -5 -5 -5 -6 -6 -6 -6 -7 -7 -8 -8 -8 -8 -9 -9 -10
1 0 -0 -1 -2 -2 -2 -1 -2 -2 -2 -2 -2 -1 -1 -2 -3 -2 -2 -2 -2 -3 -3 -3 -3 -4 -4 -4 -5 -6 -6 -6 -6 -6 -6 -6 -7 -7 -7 -8 -8 -8 -9 -9
-0 -1 -2 -2 -3 -4 -3 -3 -2 -2 -2 -2 -1 -1 -1 -2 -2 -2 -2 -1 -2 -3 -3 -3 -4 -4 -5 -5 -5 -6 -6 -6 -6 -6 -6 -6 -6 -7 -7 -7 -8 -8 -8 -9
-1 -1 -1 -2 -2 -1 -2 -3 -2 -2 -2 -2 -2 -1 -2 -2 -2 -1 -2 -2 -3 -3 -3 -3 -4 -4 -5 -5 -6 -6 -6 -6 -6 -7 -7 -7 -7 -7 -7 -7 -7 -7 -8 -8

GFSNGP_925_temp_006.txt.gz
Temp
18 18 19 18 18 18 18 18 16 18 19 19 19 18 18 17 17 17 16 15 14 13 11 11 11 10 10 9 8 7 7 6 5 4 4 4 4 4 3 3 3 3 2 2
15 16 17 17 18 18 18 18 18 18 17 18 18 17 17 16 16 15 14 13 11 9 10 11 11 10 9 9 8 6 6 5 5 4 4 4 3 3 3 3 2 2 2 1
14 14 14 14 16 18 18 18 18 16 18 17 17 16 16 15 14 12 11 10 9 9 11 11 10 9 9 8 7 6 6 5 5 4 4 3 3 3 2 2 1 1 1 0
12 12 14 17 18 18 17 18 19 18 17 16 16 16 17 12 10 8 7 9 10 11 11 10 10 9 8 8 7 6 5 5 4 4 3 3 3 2 2 1 1 1 0 -1
12 14 16 17 17 17 16 17 17 16 16 15 16 16 14 8 7 8 8 9 10 10 10 10 10 9 8 7 7 6 5 4 4 3 3 3 2 2 1 1 0 0 -1 -1
12 12 13 17 16 16 16 16 15 13 12 11 14 12 10 9 7 7 9 10 10 10 10 10 9 8 7 7 7 6 5 4 3 3 2 2 2 1 1 1 0 -1 -2 -3
12 12 14 17 15 15 13 14 13 10 10 10 9 8 8 7 9 10 10 10 9 9 9 9 8 8 7 7 6 5 4 4 3 3 2 2 1 1 1 0 -1 -3 -4 -4
11 10 11 15 15 12 14 12 10 10 10 10 10 8 9 10 11 10 10 10 9 9 8 8 8 7 7 7 6 5 4 4 3 2 2 1 1 1 1 -0 -1 -3 -4 -4
13 15 17 17 14 14 11 10 11 10 10 9 9 10 10 10 11 10 10 9 8 8 7 7 7 7 6 6 5 4 3 3 3 2 1 1 1 0 -0 -1 -3 -4 -3 -3
13 15 16 15 15 13 11 9 9 8 10 9 9 10 10 10 10 9 9 8 7 6 6 6 6 6 5 4 3 2 3 3 2 2 1 1 0 -0 -1 -2 -4 -4 -4 -4
13 14 15 14 12 10 9 7 8 10 10 10 10 10 10 10 9 8 7 7 6 6 6 5 5 4 3 1 1 2 2 2 2 1 0 -0 -0 -1 -3 -4 -5 -6 -6 -6
11 13 12 11 9 9 8 9 10 9 10 10 9 10 9 8 8 7 7 6 6 5 4 4 4 3 1 0 -0 0 0 1 1 -1 -0 -1 -1 -1 -3 -5 -6 -8 -8 -9
12 10 11 9 8 9 10 10 9 9 9 10 9 8 8 7 7 6 6 6 5 4 3 3 2 0 -0 -2 -2 -3 -2 -2 -1 -1 -1 -2 -2 -3 -3 -4 -6 -7 -8 -9
10 9 9 9 9 9 9 9 9 9 9 8 8 7 7 6 6 6 5 5 3 3 2 1 1 -0 -1 -2 -2 -3 -3 -2 -2 -2 -2 -3 -3 -4 -4 -5 -5 -5 -7 -9
9 10 10 9 9 9 9 9 9 9 9 8 7 6 6 5 5 4 3 2 1 1 2 1 -0 -1 -2 -3 -2 -2 -3 -2 -4 -4 -4 -5 -5 -5 -5 -5 -5 -6 -6 -7
9 9 9 9 9 9 9 9 8 7 7 6 6 5 4 4 3 2 -0 -1 -1 -1 -1 -2 -3 -3 -3 -2 -2 -2 -3 -4 -4 -4 -4 -4 -4 -5 -5 -5 -5 -6 -7 -8
8 8 8 8 8 8 7 7 6 6 4 4 3 2 1 0 -1 -0 -0 -1 -2 -3 -3 -3 -3 -2 -3 -3 -3 -2 -3 -4 -4 -3 -4 -4 -5 -5 -5 -6 -6 -6 -7 -9
8 8 7 7 7 6 6 5 4 3 3 2 0 -1 -1 -1 -0 -0 -0 -1 -2 -3 -3 -3 -3 -4 -4 -3 -4 -4 -4 -4 -4 -4 -4 -5 -5 -5 -6 -6 -6 -6 -7 -8
7 7 6 6 5 4 4 4 3 1 0 -0 -1 -1 -2 -2 -1 -1 -1 -2 -2 -3 -1 -3 -4 -4 -4 -4 -4 -4 -4 -5 -4 -4 -5 -6 -5 -6 -6 -6 -6 -7 -7 -8
6 6 5 5 4 2 2 2 1 0 0 -0 -1 -2 -2 -1 -1 -1 -1 -1 -2 -1 -2 -3 -3 -3 -4 -4 -5 -4 -5 -5 -4 -5 -5 -5 -6 -6 -6 -7 -7 -7 -7 -8
4 4 3 2 2 2 1 1 -0 -1 -0 -1 -2 -2 -2 -2 -1 -1 -1 -1 -1 -1 -2 -3 -3 -2 -3 -4 -4 -4 -5 -5 -5 -4 -5 -5 -6 -6 -6 -6 -7 -7 -7 -8
4 3 2 2 1 0 1 0 -1 -1 -1 -2 -2 -2 -2 -2 -1 -1 -1 -1 -1 -2 -2 -2 -2 -3 -3 -4 -4 -5 -5 -5 -5 -5 -5 -5 -6 -6 -6 -6 -7 -7 -7 -8
3 2 2 1 0 1 0 -0 -1 -1 -2 -2 -2 -2 -2 -2 -2 -1 -0 -1 -2 -2 -3 -3 -3 -3 -4 -5 -5 -5 -5 -5 -5 -5 -5 -5 -6 -6 -6 -6 -7 -7 -7 -8
2 2 2 1 -0 -1 -1 1 -0 -1 -2 -1 -1 -1 -2 -1 -1 -1 -1 -2 -2 -2 -2 -3 -3 -3 -4 -4 -5 -5 -5 -5 -5 -5 -5 -5 -6 -6 -6 -7 -7 -7 -8 -8
1 1 0 -1 -0 2 1 0 -1 -1 -1 -1 -1 -2 -1 -2 -1 -2 -2 -2 -2 -3 -3 -3 -3 -4 -4 -5 -5 -5 -5 -5 -5 -6 -5 -5 -5 -6 -6 -7 -7 -7 -7 -8
2 2 3 1 1 1 0 0 -1 -1 -1 -1 -1 -2 -2 -2 -1 -2 -2 -2 -2 -2 -3 -3 -3 -4 -4 -5 -5 -5 -6 -6 -6 -6 -6 -6 -6 -6 -6 -6 -7 -7 -7 -8
2 1 0 1 2 1 0 -0 -1 -2 -2 -2 -2 -2 -2 -2 -2 -2 -2 -2 -2 -3 -3 -3 -4 -4 -4 -5 -5 -6 -6 -6 -7 -7 -7 -7 -7 -7 -7 -7 -7 -7 -7 -8

GFSNGP_925_temp_009.txt.gz
Temp
21 21 21 21 21 21 21 21 19 19 20 22 21 20 20 20 19 18 17 16 15 14 13 12 12 13 12 12 11 10 9 9 8 7 7 6 5 5 5 4 4 4 4 3
18 21 20 19 20 21 21 21 21 21 20 22 21 20 19 17 17 17 16 14 13 13 12 13 13 12 12 11 11 10 9 9 8 7 5 5 5 5 4 4 4 3 3 3
16 17 16 15 19 21 21 21 20 18 20 20 19 18 16 15 16 14 12 11 12 13 12 13 12 12 12 12 11 10 9 8 8 6 5 5 5 5 4 4 3 3 3 2
13 13 15 20 21 21 20 20 21 21 20 19 17 17 16 14 13 12 11 11 12 12 12 12 12 12 12 11 11 10 9 8 7 6 5 5 5 4 4 3 3 3 2 1
13 15 17 19 19 19 18 18 20 19 17 16 16 16 15 13 12 11 11 12 12 12 12 12 12 12 11 10 10 10 9 8 7 5 4 4 4 4 3 3 3 2 1 0
13 13 14 18 20 19 18 16 17 16 15 12 14 13 14 12 11 11 12 13 12 12 11 11 11 11 10 10 10 9 8 7 6 5 4 4 4 3 3 3 3 1 -0 -1
13 13 15 19 18 18 15 15 15 14 12 13 12 13 12 11 12 12 12 12 12 12 11 11 10 9 10 10 10 8 7 6 5 4 4 4 3 3 3 3 1 -1 -2 -2
13 12 13 18 17 14 16 16 14 12 11 11 12 12 12 12 12 12 12 12 12 11 10 9 9 9 8 9 9 7 6 5 4 3 4 4 3 3 3 2 1 -1 -2 -3
16 17 19 17 17 16 16 13 12 10 9 10 12 12 12 12 12 12 12 11 11 10 9 8 8 8 7 7 6 4 3 3 2 3 3 3 3 3 2 1 -0 -2 -2 -3
15 17 18 16 16 14 13 11 10 9 11 12 12 12 12 12 12 11 11 10 10 9 8 8 7 7 6 4 3 3 2 2 3 3 3 3 3 2 1 -0 -2 -2 -3 -4
16 17 17 17 13 13 12 11 10 12 12 12 12 12 12 12 11 10 9 9 8 8 8 7 7 6 5 3 2 1 1 2 2 2 2 2 2 1 -0 -2 -4 -4 -5 -6
15 16 14 14 12 12 12 11 12 12 11 11 11 12 11 11 10 9 8 8 8 8 7 6 5 4 3 2 1 1 1 1 2 1 1 0 1 0 -2 -3 -4 -5 -7 -8
16 14 13 11 10 11 12 12 11 11 11 11 11 10 10 9 9 8 8 7 7 6 5 4 3 2 1 0 -1 -2 -1 -0 0 1 0 -0 -1 -2 -2 -3 -5 -6 -7 -8
13 11 8 9 11 11 11 11 11 11 11 10 10 9 9 8 8 7 7 6 5 4 3 3 3 2 0 0 -0 -1 -2 -1 -1 -1 -1 -2 -3 -3 -3 -3 -4 -4 -6 -7
10 10 9 9 11 11 11 11 11 11 10 9 8 8 7 6 6 6 5 5 3 1 2 2 2 1 0 -1 -1 -0 -1 -2 -3 -3 -3 -3 -4 -4 -4 -4 -4 -4 -5 -5
9 11 12 11 11 11 11 10 10 9 9 7 7 5 5 5 4 4 3 3 1 -0 -1 -2 -3 -2 -1 -1 -1 0 0 -2 -3 -3 -3 -3 -4 -4 -4 -4 -4 -4 -5 -5
11 10 10 10 10 10 9 9 8 7 6 6 5 3 2 1 -0 2 1 0 0 -1 -2 -3 -3 -2 -2 -2 -1 -0 -1 -2 -3 -4 -3 -4 -4 -4 -4 -5 -5 -4 -5 -7
11 10 10 9 9 9 8 7 6 5 5 4 2 0 -1 -1 -0 -1 -1 -1 -1 -1 -1 -2 -3 -2 -2 -2 -2 -3 -4 -4 -4 -4 -4 -4 -4 -4 -5 -5 -5 -5 -5 -6
9 9 9 8 8 7 6 5 5 4 2 1 0 -0 -1 -1 -1 -1 -1 -1 -1 -1 -1 -1 -3 -3 -3 -3 -4 -3 -4 -4 -4 -4 -4 -4 -5 -5 -5 -5 -5 -5 -6 -6
8 8 8 7 6 4 4 3 3 2 2 2 1 -1 -1 -1 -1 -1 -1 -1 -1 -1 -1 -2 -2 -3 -3 -3 -4 -3 -4 -4 -4 -4 -4 -4 -4 -4 -5 -5 -5 -5 -6 -6
6 6 6 4 3 3 3 3 2 1 1 0 -1 -1 -1 -2 -2 -2 -1 0 1 -1 -1 -2 -3 -2 -1 -2 -3 -3 -4 -4 -4 -4 -4 -4 -4 -5 -5 -5 -5 -5 -6 -6
6 6 4 3 2 2 2 2 1 1 0 -1 -1 -2 -2 -1 -1 -1 -1 -1 -0 -1 -1 -2 -2 -2 -1 -2 -2 -3 -4 -4 -4 -4 -4 -4 -4 -5 -5 -5 -5 -5 -6 -6
5 5 4 3 2 2 2 1 1 1 -0 -1 -1 -2 -1 -1 -1 -1 -0 -0 -1 -1 -2 -2 -2 -2 -2 -3 -4 -4 -4 -4 -4 -4 -4 -4 -4 -5 -5 -6 -6 -6 -6 -6
4 4 4 3 2 1 0 3 3 1 -0 -0 -0 -1 -0 -1 -1 -1 -1 -1 -2 -2 -2 -2 -2 -2 -3 -4 -4 -4 -4 -4 -4 -4 -4 -4 -4 -5 -5 -6 -6 -6 -6 -6
4 3 2 2 2 3 4 4 3 3 2 1 0 -0 -1 -1 -2 -2 -2 -2 -2 -2 -2 -2 -3 -3 -3 -4 -4 -4 -4 -4 -5 -4 -5 -5 -4 -5 -5 -5 -6 -6 -6 -6
4 4 4 4 4 4 3 3 3 2 1 -0 -0 -0 -1 -1 -2 -2 -2 -2 -2 -2 -3 -2 -3 -3 -4 -4 -4 -4 -4 -5 -5 -5 -6 -6 -6 -5 -5 -6 -6 -6 -6 -6
4 4 4 3 3 4 3 3 1 -0 -1 -2 -2 -1 -1 -2 -2 -2 -2 -2 -2 -2 -2 -2 -3 -3 -4 -4 -4 -4 -5 -5 -5 -6 -6 -6 -6 -6 -6 -6 -6 -7 -6 -6

GFSNGP_925_temp_012.txt.gz
Temp
21 21 22 22 21 22 21 21 19 20 21 22 21 21 18 18 18 18 17 16 15 14 14 13 13 13 13 13 12 11 10 10 10 9 8 7 6 5 5 5 4 4 4 3
18 21 20 19 20 20 21 22 21 21 20 22 21 19 17 16 16 16 15 13 13 13 13 13 13 13 13 13 12 10 9 8 9 7 7 6 5 5 5 5 4 4 3 3
16 16 16 15 18 21 21 21 21 18 20 20 18 17 17 16 15 14 13 13 12 13 13 13 13 12 12 12 12 10 9 10 8 5 4 5 5 5 4 4 4 3 3 2
13 13 16 21 21 21 20 21 21 21 20 18 17 16 16 14 13 12 12 12 12 13 13 13 12 12 12 11 11 11 11 9 6 5 5 6 5 5 4 4 3 3 3 2
13 15 17 19 20 18 17 17 20 19 17 16 15 16 14 13 13 12 12 12 13 13 13 12 12 11 10 10 10 10 10 7 5 5 5 5 5 4 4 3 3 2 1 0
12 13 14 18 20 19 19 16 17 16 15 14 14 12 13 13 12 13 13 13 13 13 12 11 11 10 9 9 9 9 6 6 4 3 4 4 3 4 3 3 2 1 -0 -2
13 13 14 19 19 18 15 15 15 14 13 13 12 11 13 13 13 13 13 13 12 12 11 10 9 9 9 8 8 7 5 4 3 1 1 3 4 3 3 3 2 -0 -1 -2
13 12 13 19 18 15 16 16 15 14 12 10 9 11 13 13 13 13 12 12 12 11 10 9 9 9 8 8 7 5 4 4 3 3 2 3 3 3 3 2 1 -1 -2 -2
15 15 18 19 17 16 14 13 11 11 10 11 10 12 13 12 12 12 12 11 10 10 9 9 9 8 7 6 5 4 3 3 2 2 3 3 3 3 2 1 -1 -2 -2 -3
16 18 18 18 17 15 14 13 12 12 12 12 12 12 12 12 12 11 11 10 9 9 9 9 8 7 6 5 3 3 2 2 2 2 3 3 2 2 1 -0 -2 -2 -3 -5
17 18 18 16 15 13 12 12 12 12 13 12 12 12 12 11 11 10 10 9 8 9 8 7 7 6 4 3 2 2 1 1 1 1 1 1 1 0 -0 -2 -3 -4 -5 -6
15 17 16 14 13 12 12 11 11 12 12 12 12 11 11 10 10 9 8 8 8 8 7 6 5 4 3 2 1 -0 -1 -0 0 0 0 0 0 -0 -1 -2 -3 -4 -5 -6
16 16 14 12 12 11 12 12 12 12 11 11 11 10 10 9 9 8 7 7 7 6 5 4 3 3 2 1 0 -0 -1 -1 -1 -0 -1 -1 -1 -2 -3 -3 -3 -4 -5 -6
15 13 11 11 10 11 12 12 11 12 11 11 10 9 8 8 7 6 6 6 5 5 4 2 2 2 1 0 0 -0 -1 -1 -2 -2 -2 -2 -3 -3 -3 -4 -4 -4 -4 -5
12 11 11 10 10 12 12 12 11 11 10 9 8 7 6 6 5 5 4 3 3 3 3 1 0 -1 -1 -0 -1 -1 -0 -1 -2 -3 -3 -3 -3 -3 -4 -4 -4 -4 -4 -5
11 11 11 11 12 12 12 11 10 9 9 7 7 5 5 4 3 2 2 2 0 -0 -0 0 -1 -2 -2 -1 -1 -1 0 -1 -2 -3 -3 -3 -3 -4 -4 -4 -4 -4 -4 -6
11 11 12 11 11 10 10 9 9 7 6 6 5 3 2 1 0 1 1 -0 -0 -1 -1 -1 -1 -2 -2 -1 -2 -1 -1 -2 -3 -3 -3 -4 -4 -4 -4 -5 -5 -5 -5 -6
12 12 11 10 10 9 8 7 6 5 5 4 3 2 1 -0 -0 -0 -1 -1 -1 -1 -1 -0 -1 -2 -2 -2 -2 -2 -3 -3 -4 -4 -4 -4 -4 -4 -4 -5 -5 -5 -5 -6
11 10 9 9 8 7 6 6 5 4 4 3 2 1 1 -0 -1 -1 -1 -2 -1 -1 -0 -0 -1 -2 -3 -2 -3 -3 -3 -3 -4 -4 -4 -4 -4 -4 -5 -5 -5 -5 -5 -6
9 9 8 7 6 5 4 4 3 3 3 2 2 1 -0 -1 -1 -1 -2 -2 -1 -1 0 -1 -1 -2 -2 -3 -3 -3 -3 -3 -4 -4 -4 -4 -4 -4 -4 -5 -5 -5 -5 -5
6 6 6 5 5 4 3 3 2 1 2 1 0 -1 -1 -1 -1 -1 -1 -1 -0 -0 -1 -1 -1 -2 -2 -2 -2 -3 -3 -4 -4 -4 -4 -4 -4 -4 -4 -5 -5 -5 -5 -5
6 6 5 5 4 3 3 3 2 2 2 1 -0 -1 -1 -1 -1 -1 -1 -1 -1 -1 -1 -2 -2 -2 -2 -2 -2 -2 -3 -3 -3 -4 -4 -4 -4 -4 -4 -5 -5 -5 -5 -5
5 5 5 4 4 3 3 2 2 2 0 -1 -1 -1 -1 -1 -1 -1 -1 -1 -1 -1 -2 -2 -2 -2 -2 -2 -2 -2 -3 -4 -3 -4 -4 -4 -4 -4 -4 -4 -5 -5 -5 -6
5 5 4 4 3 3 1 2 2 3 3 2 1 1 0 -1 -1 -1 -1 -1 -2 -2 -2 -2 -2 -2 -2 -2 -3 -3 -4 -4 -4 -4 -4 -4 -4 -4 -4 -4 -5 -5 -6 -6
4 4 3 3 2 2 2 3 4 4 3 2 2 1 -0 -0 -1 -1 -1 -1 -2 -2 -2 -3 -2 -2 -2 -3 -3 -4 -4 -4 -4 -4 -4 -4 -4 -5 -4 -4 -5 -5 -5 -6
4 4 4 4 4 3 3 4 3 3 2 1 0 -1 -1 -1 -1 -1 -2 -2 -2 -2 -2 -2 -3 -3 -3 -3 -3 -4 -4 -4 -4 -4 -4 -5 -5 -5 -5 -5 -5 -5 -6 -6
4 4 4 4 4 4 4 4 3 1 0 -1 -1 -1 -2 -2 -2 -2 -2 -2 -2 -2 -2 -2 -2 -3 -3 -3 -3 -4 -4 -4 -4 -4 -5 -5 -5 -6 -6 -6 -6 -6 -6 -6

GFSNGP_925_temp_015.txt.gz
Temp
18 19 19 19 18 18 18 17 14 15 17 18 14 15 14 14 14 13 12 12 11 10 11 12 12 12 12 12 12 11 11 10 10 8 7 6 5 4 2 5 5 4 4 3
16 17 16 16 16 17 18 18 19 18 18 16 15 14 14 13 12 12 12 11 10 11 12 12 12 12 12 11 10 9 9 9 8 7 6 4 4 2 4 4 4 4 3 3
12 13 12 12 17 18 19 19 19 16 17 14 13 13 11 11 11 11 10 10 10 10 11 12 12 10 10 9 9 9 8 7 5 5 4 4 3 3 4 4 4 3 3 2
8 9 11 16 18 18 17 17 17 16 14 13 13 11 10 10 10 10 10 10 10 11 11 12 10 9 9 9 9 8 7 6 5 4 4 3 2 2 3 3 3 2 1 1
9 9 13 17 18 17 16 15 14 13 13 13 13 12 10 11 11 11 10 11 12 12 11 10 9 9 9 9 8 7 5 5 4 3 2 2 1 3 1 3 2 2 1 -0
7 8 8 13 17 17 17 11 14 13 11 11 11 7 9 10 11 11 12 12 11 11 10 9 9 9 9 8 7 5 4 4 3 3 2 2 2 2 3 3 1 0 -1 -2
10 6 10 13 17 17 13 11 12 11 10 11 9 8 9 10 11 12 12 11 10 10 9 9 9 9 8 7 5 5 4 3 3 3 2 2 2 3 3 1 -0 -1 -2 -3
11 10 9 15 16 13 12 13 11 11 10 9 9 9 9 11 10 11 10 10 10 9 8 8 8 8 6 5 4 4 3 2 2 2 2 2 3 2 1 0 -1 -2 -3 -3
10 10 12 15 14 13 12 11 10 11 9 10 9 9 11 10 10 10 9 9 9 8 8 8 7 6 5 3 3 3 2 2 2 2 2 2 1 1 0 -1 -2 -3 -3 -4
12 14 15 16 13 12 11 10 10 10 10 11 10 10 10 9 8 9 9 8 8 8 7 7 6 5 4 3 2 2 1 1 1 0 1 1 1 -0 -1 -2 -2 -3 -4 -5
12 15 15 12 11 10 10 10 11 11 11 11 11 10 9 7 8 8 7 7 7 6 6 6 4 4 3 3 3 1 0 -1 -1 -0 -0 -0 -0 -1 -2 -2 -3 -3 -4 -5
10 13 13 11 10 11 11 10 11 11 11 11 10 8 8 7 7 6 6 6 6 5 5 4 3 3 2 3 2 1 -0 -1 -1 -1 -1 -1 -2 -2 -3 -3 -3 -3 -4 -5
13 12 11 10 10 11 10 10 11 11 11 9 8 8 7 6 6 6 5 5 4 4 4 3 3 2 1 0 0 0 -0 -1 -1 -1 -2 -2 -2 -3 -3 -3 -3 -4 -4 -5
11 10 9 10 9 11 11 11 11 10 9 8 7 7 6 5 5 4 4 4 3 2 2 1 1 1 0 -1 -1 -1 -1 -1 -1 -2 -2 -3 -3 -3 -3 -4 -4 -4 -4 -5
10 10 9 9 10 11 11 10 8 7 7 6 6 5 5 4 3 3 3 2 2 1 0 -1 -1 0 -0 -2 -2 -1 -1 -1 -1 -2 -3 -3 -3 -3 -4 -4 -4 -4 -4 -6
9 9 9 9 10 10 8 7 6 5 5 5 5 4 4 3 2 2 1 1 0 -1 -1 -1 -2 -0 -1 -2 -2 -1 -1 -1 -2 -2 -3 -3 -3 -4 -4 -4 -4 -4 -5 -5
9 9 9 9 7 7 6 6 6 5 5 5 4 4 3 2 1 1 0 -0 -1 -2 -2 -1 -0 -0 -1 -2 -2 -2 -2 -3 -3 -3 -3 -3 -4 -4 -4 -4 -5 -5 -5 -5
10 9 9 8 6 6 5 5 5 5 4 4 3 3 2 1 -0 -0 -1 -1 -2 -2 -1 -1 -0 -0 -1 -2 -2 -2 -2 -3 -3 -3 -3 -3 -3 -4 -4 -4 -5 -5 -5 -5
9 8 7 6 6 5 5 4 4 4 4 3 2 2 1 0 -0 -1 -1 -2 -1 -1 -1 -0 -1 -1 -1 -2 -3 -3 -3 -3 -3 -3 -4 -3 -4 -4 -4 -4 -5 -5 -5 -5
6 6 6 6 6 5 4 4 3 3 3 2 1 1 -0 -1 -1 -1 -1 -1 -1 -1 -1 -1 -1 -2 -2 -2 -2 -3 -3 -3 -3 -3 -3 -4 -4 -4 -4 -4 -4 -5 -5 -5
5 6 5 5 5 4 4 3 3 2 3 2 1 0 -1 -0 -1 -0 -1 -1 -1 -1 -1 -2 -1 -2 -2 -2 -2 -3 -3 -3 -3 -4 -4 -4 -4 -4 -4 -4 -4 -5 -5 -5
5 5 5 4 4 3 4 3 3 3 2 1 1 -1 -1 -0 0 -0 -1 -1 -1 -1 -1 -2 -2 -2 -2 -2 -2 -2 -3 -3 -3 -3 -4 -4 -4 -4 -4 -4 -4 -5 -5 -6
4 4 4 4 4 3 3 3 3 2 2 1 1 -0 0 1 -0 -2 -2 -1 -1 -2 -2 -2 -2 -2 -2 -2 -2 -2 -2 -3 -3 -3 -3 -3 -4 -4 -4 -4 -4 -5 -5 -5
4 4 4 4 3 3 2 3 3 3 3 2 2 2 1 -0 -1 -1 -1 -1 -1 -1 -2 -2 -2 -3 -3 -2 -2 -2 -2 -3 -3 -3 -4 -4 -3 -4 -4 -4 -4 -4 -5 -5
4 4 3 3 2 2 3 3 3 3 3 3 2 1 0 -0 -1 -1 -1 -2 -1 -2 -2 -2 -3 -2 -3 -3 -3 -3 -3 -3 -3 -4 -4 -4 -4 -4 -4 -5 -5 -5 -5 -5
3 3 4 4 3 4 4 3 2 3 3 2 0 0 -0 -1 -1 -2 -2 -1 -2 -2 -2 -2 -3 -3 -2 -3 -3 -3 -3 -3 -3 -4 -4 -4 -4 -4 -5 -5 -5 -5 -6 -6
4 4 4 4 3 3 2 2 0 -0 -0 -1 -1 -1 -1 -1 -1 -2 -2 -2 -3 -3 -3 -3 -2 -3 -3 -3 -3 -3 -3 -3 -3 -4 -4 -4 -4 -5 -5 -5 -6 -6 -6 -6

GFSNGP_925_temp_018.txt.gz
Temp
17 16 18 17 18 17 17 15 14 15 14 15 13 12 13 12 11 11 10 10 10 9 10 11 12 11 10 9 9 9 8 8 7 6 6 6 5 4 3 3 3 2 3 3
16 15 14 16 16 16 16 17 17 17 14 14 13 12 11 11 10 10 10 10 10 10 10 10 9 9 9 9 9 8 8 7 6 5 5 5 4 3 3 2 3 3 3 3
12 11 12 11 16 17 18 16 17 15 13 12 12 11 10 10 10 10 10 10 9 9 10 9 9 9 9 9 8 7 6 5 5 4 4 3 3 2 1 1 2 2 2 1
8 8 11 16 17 17 16 15 13 12 12 12 11 10 9 9 9 10 9 9 9 9 9 9 9 9 9 8 8 6 5 5 4 4 3 3 2 1 1 1 1 1 1 -1
8 9 12 16 16 16 16 14 13 12 11 12 10 9 10 10 10 10 10 10 10 10 9 9 8 8 8 7 6 5 5 4 3 3 3 2 1 1 1 1 1 0 -1 -2
7 8 9 13 16 15 15 11 12 11 10 11 10 7 8 9 10 11 11 10 9 9 8 8 8 8 7 6 5 4 4 3 3 2 2 2 2 2 2 1 1 -1 -2 -3
3 5 8 11 15 15 12 12 11 10 9 9 9 8 8 9 11 11 10 9 9 8 8 8 7 7 6 5 4 3 3 3 2 2 1 2 2 2 1 0 -1 -2 -3 -4
7 5 10 12 14 13 11 11 10 9 9 9 9 9 9 10 10 9 9 8 8 8 7 7 6 6 5 4 4 3 2 2 1 1 1 1 1 1 -0 -1 -2 -3 -3 -4
10 10 12 12 13 13 11 10 9 8 8 9 8 9 10 9 8 8 7 7 7 7 6 6 6 5 4 4 3 2 2 1 0 0 0 0 0 -0 -1 -2 -3 -3 -4 -5
11 13 12 13 13 11 10 9 9 9 8 9 10 9 8 7 6 6 6 6 6 6 5 5 4 4 3 3 3 2 1 0 -1 -1 -1 -0 -1 -1 -2 -3 -3 -4 -4 -5
10 13 12 11 11 9 9 9 9 10 10 10 8 7 7 6 6 6 5 5 5 4 4 4 3 3 2 2 2 1 1 0 -1 -1 -1 -1 -2 -3 -3 -3 -3 -4 -4 -5
11 12 12 11 9 9 9 10 11 11 9 8 7 6 6 5 5 5 4 4 4 3 3 2 2 2 1 1 1 -0 -0 -0 -1 -1 -2 -2 -3 -3 -3 -3 -4 -4 -4 -5
12 12 11 9 9 10 9 10 10 9 8 6 6 6 6 5 5 4 4 4 3 2 2 1 1 0 0 0 -0 -1 -2 -1 -1 -1 -2 -2 -3 -3 -3 -3 -4 -4 -4 -5
10 9 9 9 9 10 11 10 8 8 7 6 6 5 5 4 4 4 3 2 2 1 1 0 -1 -1 -0 -1 -1 -2 -2 -2 -1 -2 -2 -3 -3 -3 -4 -4 -4 -4 -4 -5
9 10 9 9 10 10 9 8 6 5 5 5 5 4 4 3 3 3 2 2 1 -0 -1 -2 -2 -1 -0 -1 -1 -2 -2 -2 -2 -2 -2 -3 -3 -3 -4 -4 -4 -5 -5 -5
8 8 9 10 10 8 7 6 5 4 4 4 4 4 4 3 2 2 1 0 -1 -2 -2 -2 -2 -1 -1 -1 -2 -2 -2 -2 -2 -3 -3 -3 -3 -4 -4 -4 -5 -5 -5 -5
8 8 8 7 6 6 6 5 5 4 4 4 4 4 3 2 1 1 0 -1 -2 -2 -2 -2 -2 -1 -1 -1 -1 -2 -2 -2 -3 -3 -4 -4 -4 -4 -4 -5 -4 -5 -5 -5
9 8 6 6 5 4 4 4 4 4 4 4 3 3 2 1 -1 -1 -1 -1 -1 -2 -1 -1 -1 -1 -1 -1 -2 -2 -2 -3 -3 -3 -3 -4 -4 -4 -4 -4 -4 -5 -5 -5
5 5 5 5 5 5 4 4 4 4 4 3 2 2 1 0 -0 -0 -1 -1 -1 -1 -1 -1 -1 -1 -1 -1 -2 -2 -3 -3 -3 -3 -4 -4 -4 -4 -4 -4 -4 -5 -5 -5
5 5 5 5 5 5 5 4 3 3 3 2 2 1 -1 0 0 -0 -0 -2 -1 -0 -1 -1 -2 -3 -3 -2 -2 -3 -3 -3 -3 -3 -4 -4 -4 -4 -4 -4 -4 -4 -5 -5
4 5 5 5 4 4 4 3 3 2 3 2 1 -0 -0 0 0 0 -1 -3 -1 -1 -1 -1 -1 -2 -3 -2 -3 -3 -3 -3 -3 -3 -3 -4 -4 -4 -4 -4 -4 -4 -5 -5
4 4 4 4 4 3 3 3 3 3 2 1 0 -0 -1 -1 1 1 -0 -1 -1 -1 -1 -2 -2 -1 -2 -2 -3 -2 -3 -3 -3 -3 -3 -4 -4 -4 -4 -4 -4 -4 -4 -5
4 3 3 3 3 2 3 3 3 2 2 2 2 2 1 0 0 -2 -2 -1 -1 -1 -2 -2 -2 -2 -2 -3 -3 -3 -2 -2 -2 -2 -3 -3 -4 -4 -4 -4 -4 -4 -4 -4
3 3 3 3 3 3 2 3 3 3 3 3 3 3 1 -0 0 -1 -1 -2 -2 -2 -2 -2 -2 -2 -3 -3 -3 -3 -3 -3 -3 -3 -3 -3 -4 -4 -4 -4 -4 -4 -4 -5
3 3 3 3 2 2 3 3 2 2 1 1 1 1 0 -1 -2 -2 -1 -2 -1 -2 -2 -3 -3 -3 -3 -3 -3 -3 -3 -3 -3 -4 -4 -4 -4 -4 -4 -4 -4 -5 -5 -5
3 3 3 3 3 3 3 2 1 0 -1 -0 0 0 -0 -1 -2 -1 -1 -1 -2 -3 -3 -4 -4 -3 -3 -3 -4 -3 -3 -3 -3 -3 -4 -4 -4 -4 -4 -4 -5 -5 -5 -6
3 3 3 3 3 2 2 1 -0 -1 -1 -1 -2 -1 -2 -1 -2 -1 -2 -3 -3 -3 -4 -4 -4 -4 -4 -4 -3 -3 -3 -3 -3 -3 -4 -4 -4 -4 -4 -4 -5 -5 -6 -6

GFSNGP_925_temp_021.txt.gz
Temp
15 15 17 17 17 15 15 14 14 14 14 15 12 11 10 10 9 9 9 10 10 9 9 9 9 9 9 9 9 8 8 8 7 6 5 4 4 4 3 2 2 2 2 2
15 13 13 16 15 14 14 15 14 14 13 13 12 10 10 10 9 9 10 10 10 10 9 9 9 9 9 9 8 8 7 7 6 5 4 4 4 3 2 2 1 2 1 2
12 10 12 11 13 15 16 16 15 13 13 11 11 11 9 9 9 9 10 9 10 8 9 8 9 8 8 8 8 7 6 5 5 4 3 3 3 2 1 0 0 1 1 0
8 8 11 15 15 15 15 15 14 12 11 11 11 10 9 8 8 8 9 9 8 8 8 8 8 8 8 8 7 6 5 4 3 3 3 2 2 1 1 1 0 0 -0 -1
7 9 12 16 15 14 14 14 12 12 11 11 9 9 9 8 8 8 8 9 9 9 9 8 8 8 7 7 6 5 4 3 3 3 2 2 1 1 1 1 0 -0 -1 -2
6 8 9 13 14 14 15 11 11 11 10 9 8 7 8 8 8 9 9 9 9 8 8 8 7 7 6 6 5 4 4 3 3 2 1 1 1 1 1 1 -0 -2 -2 -3
1 5 9 11 14 15 13 12 10 10 10 8 8 8 8 7 8 10 9 9 8 7 7 6 6 6 5 5 4 4 3 3 2 1 1 1 1 1 1 -0 -1 -2 -3 -4
6 5 11 12 13 13 12 11 11 9 9 9 9 8 8 8 7 8 7 7 7 7 6 6 5 5 5 4 4 3 3 2 1 0 0 0 1 1 -0 -1 -2 -3 -4 -5
10 10 12 11 13 12 10 10 9 9 8 9 8 8 8 7 6 6 6 6 6 6 5 5 4 4 4 3 3 2 2 1 0 -0 -0 -0 -0 -1 -2 -2 -3 -3 -4 -5
11 13 11 11 12 12 10 10 8 8 8 8 8 8 7 6 5 5 5 5 5 4 4 3 3 3 3 2 2 2 1 0 -0 -1 -1 -1 -1 -2 -2 -3 -3 -4 -4 -5
9 11 11 12 10 10 9 8 8 9 9 9 8 6 6 5 4 5 5 4 4 3 3 2 2 2 1 1 1 1 0 -0 -2 -1 -1 -2 -2 -2 -3 -3 -4 -4 -4 -5
11 12 12 12 11 8 8 8 9 9 8 7 7 6 5 4 4 4 4 3 3 2 2 2 1 1 0 -0 -0 -0 -1 -1 -2 -2 -2 -2 -3 -3 -4 -4 -4 -4 -4 -5
12 11 11 11 8 8 9 9 9 8 8 6 6 6 5 4 4 4 3 2 2 1 1 1 -0 -1 -1 -1 -1 -2 -1 -2 -2 -2 -3 -3 -3 -3 -3 -4 -4 -4 -4 -5
11 9 9 8 8 9 9 8 7 6 6 6 5 5 5 4 3 3 2 2 1 1 -0 -1 -2 -2 -2 -1 -1 -2 -2 -2 -2 -3 -3 -3 -3 -3 -4 -4 -4 -4 -5 -5
9 9 10 8 8 8 7 7 6 5 4 4 4 4 4 3 2 2 2 1 0 -0 -1 -2 -2 -2 -1 -1 -1 -2 -2 -2 -2 -3 -2 -3 -3 -3 -4 -4 -4 -5 -5 -5
8 8 8 8 7 7 6 5 4 4 4 4 3 3 3 3 2 2 1 0 -1 -2 -2 -2 -2 -2 -1 -1 -2 -2 -2 -2 -3 -3 -3 -3 -4 -4 -4 -4 -4 -5 -5 -5
7 7 6 6 6 4 4 4 4 4 3 3 3 3 3 2 2 1 1 0 -1 -1 -1 -1 -1 -1 -1 -1 -2 -2 -2 -2 -3 -3 -3 -3 -4 -4 -4 -4 -4 -4 -5 -5
7 5 4 3 2 2 3 3 4 3 3 3 3 3 2 1 0 1 1 0 -1 -1 -1 -0 -1 -1 -1 -2 -1 -2 -2 -3 -3 -3 -3 -3 -4 -4 -4 -4 -4 -5 -4 -5
2 2 2 3 3 3 3 3 3 3 2 2 2 2 1 1 1 1 0 -0 -1 -2 -0 -1 -1 -1 -1 -2 -3 -2 -3 -4 -3 -3 -3 -4 -4 -4 -4 -4 -4 -4 -4 -5
3 3 4 3 3 3 3 3 3 3 3 2 1 1 -1 1 1 0 -0 -1 -0 -0 -1 -1 -1 -1 -1 -2 -2 -3 -3 -3 -3 -3 -3 -4 -4 -4 -4 -4 -4 -4 -4 -5
3 3 3 3 3 3 3 3 3 2 2 2 0 -1 -2 -0 0 -0 -2 -3 0 -0 -1 -1 -1 -1 -2 -2 -2 -3 -3 -3 -3 -3 -4 -4 -4 -4 -4 -4 -4 -4 -4 -4
3 3 3 3 3 2 3 2 2 2 2 2 1 -0 -2 -1 0 -0 -0 -1 -0 -1 -2 -2 -2 -2 -2 -2 -3 -3 -3 -3 -3 -3 -3 -3 -4 -4 -4 -4 -4 -4 -4 -4
2 2 2 2 2 2 3 3 3 2 2 2 1 1 0 0 -0 -2 -2 -0 -1 -2 -2 -2 -2 -2 -2 -3 -3 -3 -4 -3 -3 -3 -3 -3 -3 -3 -3 -4 -4 -4 -4 -4
2 2 2 2 2 2 2 3 3 2 2 1 1 1 1 -0 -1 0 -1 -2 -1 -2 -2 -3 -4 -4 -4 -4 -3 -3 -3 -3 -4 -4 -4 -4 -4 -4 -4 -4 -4 -4 -5 -4
2 2 2 2 2 2 2 2 1 2 1 1 1 0 0 0 -2 -0 -1 -2 -2 -2 -3 -3 -3 -4 -5 -4 -4 -4 -4 -4 -4 -4 -4 -4 -4 -4 -5 -5 -5 -4 -5 -5
2 1 1 0 -0 -0 -1 -1 -2 -2 -2 -2 -1 -1 -1 -1 -1 -2 -2 -2 -3 -3 -4 -4 -4 -5 -5 -5 -5 -5 -5 -4 -4 -4 -3 -3 -4 -4 -4 -5 -5 -4 -4 -5
-1 -2 -2 -2 -3 -3 -3 -4 -3 -2 -2 -2 -3 -3 -3 -2 -3 -3 -3 -3 -4 -4 -5 -5 -6 -7 -7 -7 -7 -7 -8 -7 -6 -4 -4 -4 -4 -4 -4 -4 -4 -5 -4 -5

GFSNGP_925_temp_024.txt.gz
Temp
14 13 16 17 16 14 15 14 14 14 12 14 13 11 10 9 8 8 8 8 8 8 8 9 9 9 8 9 9 8 8 7 6 5 5 4 4 3 3 2 2 1 1 1
15 12 12 15 15 14 13 14 13 13 13 12 12 9 9 9 8 8 8 9 8 9 9 9 8 8 8 9 8 8 7 6 5 5 5 4 3 2 2 1 0 0 -1 1
12 10 11 11 13 13 13 13 13 13 13 10 10 10 9 8 8 8 8 8 8 9 9 8 8 8 8 8 8 7 6 5 5 4 3 3 2 1 1 1 -0 0 0 -1
8 7 11 15 14 14 14 14 13 13 13 11 11 9 9 8 8 8 8 8 8 8 8 8 8 8 8 7 7 6 5 5 4 3 2 2 1 1 1 0 0 -0 -1 -2
7 8 12 17 15 13 14 14 12 12 11 10 8 9 10 8 7 7 8 9 9 9 8 8 8 7 7 7 6 6 5 4 3 2 2 1 1 1 1 1 0 -1 -2 -2
4 8 10 13 14 14 15 12 12 11 9 9 8 8 11 7 7 7 9 9 8 8 8 7 7 7 6 6 5 5 4 3 3 2 1 1 1 1 1 0 -0 -2 -2 -3
1 5 9 11 14 14 13 13 10 10 9 7 8 9 9 7 7 9 8 8 8 7 7 6 6 6 5 5 4 4 3 3 2 2 1 0 0 0 0 -1 -1 -2 -3 -3
5 4 11 11 13 13 12 11 10 9 8 9 8 7 7 7 6 7 7 6 7 6 6 5 5 4 4 3 3 2 2 2 1 1 0 -0 -0 -0 -0 -2 -2 -3 -3 -4
9 10 11 11 12 12 11 11 10 9 9 9 7 7 7 7 7 6 6 6 6 5 5 4 4 3 3 3 2 1 1 1 0 0 -1 -1 -1 -1 -2 -2 -3 -3 -4 -4
11 13 10 10 10 11 11 10 11 9 8 8 8 7 6 6 4 4 5 5 5 4 3 3 3 2 1 1 1 1 1 1 -0 -1 -1 -1 -2 -2 -3 -3 -3 -3 -4 -5
9 10 10 10 10 10 10 9 8 8 8 8 7 7 5 4 4 4 4 4 4 3 2 2 2 1 1 0 -0 -0 -0 -0 -1 -1 -2 -2 -2 -2 -3 -3 -4 -4 -4 -5
10 12 12 12 13 10 9 8 8 8 7 6 7 5 5 4 4 4 4 3 3 2 1 1 1 0 -0 -1 -2 -2 -2 -2 -2 -2 -2 -3 -3 -3 -3 -3 -4 -4 -5 -5
12 12 10 10 9 9 9 8 8 7 6 6 6 5 4 4 4 4 3 2 2 1 1 0 -0 -1 -1 -2 -2 -2 -2 -2 -2 -2 -3 -3 -3 -3 -4 -3 -4 -4 -4 -5
10 10 10 9 10 8 8 7 6 6 6 5 4 4 4 4 3 3 2 2 1 1 0 -1 -1 -2 -2 -2 -2 -1 -2 -2 -2 -2 -3 -3 -3 -3 -4 -4 -4 -4 -4 -5
10 9 9 8 7 6 6 6 5 4 3 2 3 3 4 3 2 2 2 1 1 0 -0 -1 -2 -2 -2 -1 -1 -2 -2 -2 -2 -2 -3 -3 -3 -4 -4 -4 -4 -5 -5 -5
8 7 7 6 6 5 5 4 2 1 1 2 3 3 3 2 2 2 2 1 0 0 -0 -1 -1 -1 -1 -1 -1 -2 -3 -2 -3 -3 -3 -3 -3 -4 -4 -4 -5 -5 -5 -5
8 5 4 3 3 2 2 1 1 1 2 2 3 3 2 2 2 1 1 1 0 -0 -0 -1 -1 -1 -1 -1 -2 -2 -3 -3 -3 -3 -3 -3 -4 -4 -4 -4 -5 -5 -4 -4
3 3 3 2 1 1 0 1 2 2 2 2 3 2 1 1 0 1 2 1 0 -0 0 0 -0 -1 -1 -2 -2 -2 -3 -3 -3 -4 -4 -4 -4 -4 -4 -4 -5 -5 -5 -5
1 1 1 1 1 2 2 2 3 2 2 2 1 1 0 1 0 1 0 -1 -1 -1 1 -0 -1 -1 -1 -1 -1 -2 -2 -3 -3 -3 -4 -4 -4 -4 -4 -4 -4 -4 -4 -4
2 2 2 2 2 2 2 2 2 1 1 1 1 1 0 1 0 -1 -1 -2 -0 1 0 -0 -1 -1 -2 -2 -2 -2 -2 -3 -3 -3 -4 -4 -4 -4 -4 -4 -4 -4 -5 -5
2 2 2 3 2 2 2 2 2 2 2 2 1 0 -2 -2 -2 -2 -3 -4 1 1 -0 -1 -2 -2 -2 -2 -3 -3 -3 -3 -3 -3 -4 -4 -4 -4 -4 -4 -4 -4 -4 -4
2 2 2 2 2 2 2 2 2 2 2 2 1 0 -1 -2 -1 -0 -0 -2 1 -1 -1 -2 -2 -2 -3 -4 -4 -4 -4 -4 -3 -3 -4 -4 -4 -4 -4 -4 -4 -4 -4 -4
2 2 2 2 1 1 2 2 2 1 1 1 1 1 0 -0 -1 -3 -3 -0 -1 -1 -2 -2 -2 -4 -5 -5 -5 -4 -4 -4 -3 -4 -4 -4 -4 -4 -5 -5 -5 -5 -5 -4
2 1 1 1 1 1 -0 -0 -0 0 0 -0 0 0 -1 -1 -1 -2 -1 -1 -1 -2 -3 -3 -3 -4 -4 -4 -5 -5 -4 -4 -4 -4 -4 -4 -4 -4 -4 -4 -5 -5 -5 -5
1 -0 -0 -1 -2 -3 -3 -3 -3 -3 -3 -3 -2 -2 -2 -2 -3 -3 -3 -3 -3 -3 -3 -3 -4 -5 -5 -5 -6 -6 -6 -6 -6 -6 -5 -4 -4 -4 -4 -4 -4 -5 -5 -5
-3 -3 -4 -4 -4 -5 -5 -5 -5 -5 -4 -4 -3 -3 -4 -4 -3 -3 -3 -3 -3 -3 -4 -4 -5 -6 -6 -7 -7 -8 -9 -9 -9 -9 -8 -7 -5 -4 -4 -4 -4 -4 -5 -5
-4 -5 -5 -5 -6 -7 -7 -7 -6 -6 -6 -6 -5 -4 -4 -4 -4 -3 -3 -3 -4 -4 -5 -6 -7 -7 -8 -8 -9 -10 -11 -11 -10 -10 -9 -9 -8 -7 -6 -4 -4 -4 -4 -5

GFSNGP_925_temp_030.txt.gz
Temp
20 20 20 22 22 21 22 23 21 24 23 25 24 24 23 22 21 20 18 17 17 16 15 14 13 13 12 10 10 10 10 10 9 8 7 6 5 5 4 3 3 3 3 2
19 18 19 19 21 22 22 23 22 23 23 25 24 22 21 20 19 18 18 17 17 16 15 14 13 13 10 11 10 9 9 9 8 7 6 6 5 4 4 3 3 3 2 2
19 17 18 16 20 22 22 22 22 21 23 23 21 20 21 20 19 18 18 17 16 16 14 14 13 10 11 10 9 8 8 8 7 6 5 5 4 4 4 3 3 3 2 2
17 13 17 22 20 20 21 22 23 22 23 21 21 20 19 20 20 18 18 16 16 15 14 13 11 10 10 9 9 8 8 7 6 5 5 5 4 4 3 3 3 3 2 1
16 18 20 23 19 19 19 22 23 22 22 20 18 17 20 18 18 18 17 16 15 14 12 11 10 9 9 9 8 8 7 6 6 5 4 4 4 3 3 3 3 3 2 1
14 17 17 21 18 18 19 20 20 20 20 19 18 19 22 19 17 16 16 15 14 11 10 10 10 9 8 8 8 7 6 6 5 4 4 4 3 2 2 2 2 2 1 0
15 16 18 20 18 18 18 20 20 18 19 18 18 20 18 17 16 15 15 13 11 10 10 9 7 7 8 8 7 6 5 4 4 4 3 3 2 2 2 2 1 1 -1 -1
13 14 16 18 17 18 19 19 18 19 19 18 18 16 15 15 15 14 12 10 9 9 7 7 7 7 7 7 6 4 4 4 4 3 2 2 2 2 2 1 1 0 -2 -2
18 20 19 18 19 19 17 17 18 17 18 16 16 16 14 14 13 12 10 9 8 7 5 6 6 5 5 5 3 3 3 3 3 2 2 2 2 2 2 1 1 0 0 -1
16 20 19 18 18 18 18 17 18 18 17 17 16 16 13 12 11 10 9 6 5 5 6 6 5 4 4 3 2 2 2 2 2 2 2 1 2 0 1 1 0 0 -0 -1
16 18 19 19 18 17 17 17 16 16 15 15 15 14 13 11 10 7 5 4 5 6 6 5 4 3 3 2 1 1 1 1 1 1 1 1 1 0 0 -0 -0 -1 -1 -2
17 16 16 17 17 16 15 15 15 14 13 12 13 12 10 8 5 4 4 4 5 4 4 3 2 2 2 1 1 0 0 1 1 0 1 0 0 0 -0 -1 -2 -2 -3 -3
15 15 15 14 14 13 12 12 11 11 11 10 8 7 4 3 3 3 4 4 4 3 2 2 2 1 1 0 -1 -1 -0 -0 0 0 0 0 -0 -1 -1 -1 -2 -3 -3 -3
12 13 14 11 10 10 9 8 6 5 3 3 2 2 2 2 2 2 3 4 3 2 1 0 1 2 1 0 -1 -1 -1 -0 -0 -0 -1 -2 -1 -1 -1 -2 -2 -2 -3 -3
10 11 10 9 8 7 6 4 3 2 1 1 1 2 3 3 4 4 3 1 -0 -0 1 2 2 2 1 -0 -1 -0 -0 -0 -1 -2 -2 -2 -2 -2 -2 -2 -2 -2 -2 -3
8 8 7 6 5 4 3 2 2 2 2 3 3 3 4 3 3 2 2 2 1 2 3 2 1 0 0 0 1 1 0 -0 -1 -1 -1 -2 -3 -2 -2 -2 -2 -2 -3 -2
5 4 3 3 2 2 2 3 4 4 4 5 4 2 2 1 0 1 2 1 1 1 1 0 1 1 0 0 0 0 0 -0 -1 -1 -2 -2 -2 -2 -2 -2 -3 -2 -2 -3
4 3 4 4 3 2 4 4 4 3 3 1 0 0 0 0 0 0 0 0 0 0 1 1 1 -0 -0 0 -0 -1 -1 -2 -2 -2 -2 -2 -3 -2 -3 -3 -3 -3 -2 -3
5 5 5 5 5 4 4 3 2 1 0 0 0 0 0 0 -0 -1 -1 -2 -2 -1 2 1 0 -0 -1 -1 -2 -3 -2 -2 -3 -3 -2 -3 -3 -3 -3 -3 -3 -3 -3 -3
5 4 4 3 2 2 2 1 1 1 1 0 -0 -0 -0 -0 -1 -1 -2 -2 -2 -1 -0 -1 -1 -2 -2 -2 -2 -2 -2 -3 -3 -3 -3 -3 -3 -3 -3 -3 -3 -3 -3 -3
4 3 2 2 1 0 -0 -0 -0 -0 -1 -1 -2 -2 -2 -2 -1 -2 -2 -1 -0 -0 -1 -2 -2 -2 -1 -1 -2 -3 -4 -4 -4 -4 -4 -3 -3 -3 -3 -3 -4 -4 -4 -4
4 2 -0 0 1 1 -1 -1 -2 -2 -3 -3 -3 -3 -3 -2 -3 -3 -3 -2 -2 -3 -3 -3 -3 -3 -3 -3 -4 -4 -4 -4 -4 -4 -4 -4 -3 -3 -3 -3 -3 -3 -4 -4
2 2 -0 -1 -1 -1 -2 -3 -4 -4 -4 -4 -4 -4 -4 -3 -3 -3 -3 -3 -4 -4 -4 -4 -4 -4 -4 -4 -4 -4 -4 -4 -4 -4 -5 -5 -5 -5 -4 -4 -4 -3 -3 -3
1 -0 -1 -2 -3 -3 -2 -3 -4 -4 -4 -4 -4 -5 -5 -5 -5 -4 -4 -5 -4 -4 -4 -4 -4 -4 -4 -4 -4 -4 -5 -6 -7 -7 -7 -8 -7 -7 -7 -6 -6 -5 -4 -4
-3 -3 -3 -3 -2 -2 -3 -4 -4 -4 -5 -5 -6 -6 -7 -7 -7 -7 -7 -7 -6 -6 -6 -5 -5 -5 -6 -7 -7 -8 -8 -8 -9 -10 -10 -10 -10 -10 -9 -9 -9 -9 -8 -6
-2 -2 -3 -4 -5 -5 -6 -6 -6 -6 -7 -7 -7 -8 -8 -8 -8 -9 -8 -8 -8 -8 -8 -8 -10 -10 -10 -10 -10 -11 -11 -11 -12 -12 -12 -12 -12 -12 -12 -12 -11 -11 -10 -9
-5 -5 -4 -5 -6 -7 -8 -9 -9 -9 -9 -9 -10 -9 -9 -10 -10 -10 -10 -10 -10 -11 -11 -11 -12 -13 -13 -13 -13 -13 -14 -14 -15 -15 -15 -15 -14 -14 -14 -14 -13 -12 -11 -10

GFSNGP_925_temp_033.txt.gz
Temp
25 24 24 25 25 25 25 25 24 25 26 27 28 27 27 26 25 25 24 23 22 21 20 19 17 16 15 14 13 12 11 12 12 11 10 9 8 7 7 6 6 5 5 5
21 23 23 23 24 25 25 25 26 26 26 28 26 27 26 25 24 24 23 22 21 21 20 19 17 16 15 13 11 11 11 11 11 10 9 8 8 7 6 6 6 5 5 4
21 21 21 18 22 24 25 26 25 24 26 27 25 25 24 24 23 23 23 22 21 20 19 18 17 15 14 11 11 11 11 11 10 9 8 8 7 7 6 6 5 5 5 4
19 15 16 24 24 24 24 25 26 26 26 26 25 24 23 24 23 23 22 22 21 20 18 17 16 14 12 12 11 10 10 10 9 8 7 7 7 6 6 5 5 5 4 3
16 20 23 24 24 22 22 23 24 23 24 24 23 21 22 23 22 22 22 21 20 19 18 17 15 12 12 11 11 10 10 9 8 8 7 7 6 6 6 5 4 4 4 3
17 16 16 22 22 21 22 21 22 22 22 22 22 20 23 22 21 20 20 20 19 18 17 15 13 12 11 10 10 10 9 8 7 7 6 6 6 5 5 4 4 4 3 3
17 17 20 23 21 21 20 20 21 21 22 22 21 21 20 20 20 20 20 19 18 16 14 13 12 9 8 8 8 8 8 7 6 6 6 6 5 4 4 4 4 3 2 1
17 15 16 21 21 20 20 21 21 21 21 20 20 21 19 19 19 19 18 16 14 13 12 10 7 7 7 9 8 6 5 5 5 5 5 5 4 4 4 4 3 2 1 -0
20 21 21 22 21 22 21 20 20 20 20 20 20 20 20 18 17 17 16 13 12 10 6 6 5 6 7 7 4 5 5 4 5 5 4 4 4 4 4 3 3 2 1 -1
19 22 22 21 21 21 20 20 20 20 19 19 19 19 18 16 15 14 13 11 6 6 5 5 6 6 5 5 4 3 4 4 4 4 3 3 3 3 3 2 1 1 0 -0
19 21 21 21 20 18 18 18 18 18 18 16 16 17 16 15 13 10 7 4 4 4 5 5 6 5 5 4 3 4 4 3 3 2 3 3 3 3 2 1 0 -0 -0 -1
18 18 17 18 17 16 16 15 15 15 15 14 15 14 12 9 6 2 2 3 3 3 4 5 4 3 3 3 3 2 2 2 2 2 2 2 2 2 1 1 -0 -0 -1 -1
17 16 16 15 14 14 12 12 12 11 10 9 7 5 3 1 1 1 2 3 4 4 4 3 2 4 3 2 1 1 1 1 1 1 2 2 1 1 1 1 0 -1 -1 -2
14 15 14 13 12 11 8 6 4 3 2 2 2 2 2 2 2 3 4 5 5 4 4 3 2 2 3 3 2 1 1 1 1 2 2 0 -0 -0 -1 -1 -1 -1 -1 -2
13 13 12 11 9 8 6 5 5 4 3 2 2 2 3 4 5 5 5 4 2 2 3 4 4 5 4 3 2 1 1 2 2 1 -0 -0 -1 -2 -1 -1 -1 -1 -1 -2
9 9 8 7 5 5 5 4 4 3 4 6 6 6 6 5 5 5 5 4 3 3 3 3 2 2 2 2 2 3 3 3 2 1 0 -0 -1 -1 -1 -1 -2 -1 -2 -2
5 4 4 4 6 7 7 7 7 7 7 5 4 2 3 2 3 4 3 3 1 1 1 0 1 1 1 2 2 3 3 2 1 0 -0 -1 -1 -2 -1 -1 -1 -1 -2 -2
6 7 7 7 5 6 7 6 5 4 4 2 0 0 0 -0 0 1 1 0 -0 -0 1 1 1 1 1 1 1 2 1 0 -0 -1 -1 -1 -1 -2 -2 -2 -2 -2 -2 -2
7 7 7 7 6 6 5 4 3 3 1 0 0 -0 -0 -0 -0 -1 -1 -1 -1 0 2 1 1 -0 0 0 0 0 -0 -1 -2 -2 -2 -2 -2 -2 -2 -2 -2 -2 -2 -2
7 6 6 5 4 4 3 2 3 2 2 -1 -1 -1 -1 -1 -2 -2 -2 -2 -1 0 -1 -2 -2 -2 -2 -1 -0 -1 -1 -2 -2 -2 -3 -3 -3 -3 -2 -2 -3 -2 -3 -3
6 5 4 3 2 0 -0 -0 -1 -0 -1 -3 -3 -2 -3 -3 -2 -2 -2 -1 -1 -1 -3 -3 -3 -3 -3 -4 -3 -3 -2 -2 -3 -3 -3 -3 -3 -3 -3 -3 -3 -3 -3 -3
5 2 1 1 2 1 -0 -1 -2 -3 -3 -3 -3 -4 -4 -2 -2 -2 -2 -2 -2 -4 -4 -4 -3 -3 -4 -4 -4 -3 -3 -3 -3 -3 -3 -3 -3 -4 -4 -4 -4 -4 -3 -3
4 2 0 0 1 1 -1 -2 -3 -3 -4 -4 -4 -4 -5 -4 -3 -3 -3 -4 -5 -5 -6 -5 -5 -6 -6 -5 -4 -3 -4 -4 -3 -4 -5 -5 -5 -5 -5 -6 -6 -6 -5 -5
3 2 1 -0 -1 -1 0 -1 -2 -2 -3 -4 -4 -5 -5 -5 -5 -5 -6 -6 -7 -8 -7 -7 -8 -9 -8 -7 -6 -6 -6 -6 -6 -7 -7 -7 -8 -8 -8 -8 -8 -8 -8 -8
-0 -0 -1 -1 0 0 -1 -2 -2 -2 -3 -4 -5 -5 -6 -6 -7 -7 -8 -8 -9 -9 -9 -9 -10 -11 -10 -9 -9 -9 -9 -10 -10 -10 -10 -10 -10 -10 -10 -10 -10 -10 -10 -9
1 1 -1 -2 -2 -3 -3 -4 -4 -4 -5 -5 -6 -7 -7 -7 -8 -9 -9 -10 -10 -10 -10 -11 -11 -12 -12 -12 -12 -12 -12 -12 -13 -13 -13 -13 -12 -12 -12 -13 -12 -12 -12 -11
-3 -2 -2 -2 -4 -5 -6 -7 -6 -7 -7 -8 -8 -8 -8 -8 -9 -10 -10 -10 -11 -11 -11 -12 -12 -13 -14 -14 -14 -14 -14 -15 -15 -15 -15 -15 -15 -15 -15 -15 -14 -14 -13 -12

GFSNGP_925_temp_036.txt.gz
Temp
25 26 25 25 26 26 25 25 22 24 25 27 27 26 27 27 26 26 25 25 24 24 20 20 19 18 17 16 15 14 13 11 11 11 11 10 9 9 8 7 6 6 6 6
23 24 25 23 25 25 25 26 26 26 26 28 27 26 25 25 25 25 25 25 24 23 22 21 19 18 17 16 14 12 11 11 9 11 10 9 9 8 7 7 6 6 6 5
20 21 21 18 22 23 25 26 26 24 25 27 26 26 25 25 25 24 23 23 23 22 21 21 20 18 17 15 12 11 11 11 11 10 9 9 8 7 7 7 6 5 5 5
18 15 17 23 25 25 24 25 26 26 25 25 23 24 24 24 24 23 23 23 22 22 21 20 19 17 16 13 12 11 10 10 10 9 9 8 7 6 7 6 6 5 5 4
15 19 22 23 24 23 23 23 24 23 23 24 24 23 23 24 22 21 21 21 21 21 20 19 17 15 13 12 11 10 10 9 9 8 7 6 7 6 6 6 5 5 4 4
17 17 17 22 22 23 23 20 22 22 22 22 22 19 20 21 21 21 21 21 20 20 19 17 14 13 11 11 10 9 7 7 7 6 5 6 6 6 6 5 5 4 4 3
16 16 18 23 22 22 19 19 21 21 21 20 20 20 20 19 19 20 20 18 17 16 14 12 10 10 8 6 5 5 6 5 5 4 5 6 6 5 5 4 4 4 3 2
17 14 15 23 21 19 20 21 20 20 20 19 19 20 20 20 19 19 18 16 14 9 7 7 6 6 5 5 6 5 5 4 4 4 5 5 5 4 4 3 4 3 3 2
19 18 21 23 21 22 21 20 20 19 20 19 19 19 19 19 17 17 15 11 8 7 5 5 4 4 5 5 5 5 4 3 3 4 4 4 4 4 4 3 3 2 2 1
20 22 22 22 22 20 19 18 19 19 19 18 16 17 17 16 14 10 8 7 6 5 5 5 5 5 4 4 4 3 2 3 4 4 3 3 3 3 3 3 2 1 1 0
20 21 21 19 18 17 17 17 17 17 15 15 16 14 11 9 7 5 4 4 4 4 4 4 4 4 5 4 3 2 3 3 3 2 2 2 2 2 3 2 1 1 1 0
18 18 18 16 15 16 15 14 14 14 10 10 9 7 5 4 3 3 3 3 3 3 4 5 5 4 3 3 4 3 2 2 2 2 1 1 2 2 2 2 1 1 0 -0
17 17 16 14 13 11 10 10 9 8 7 6 4 3 3 2 2 2 2 3 4 5 5 5 4 4 4 4 2 2 1 1 1 1 1 1 1 1 -0 -0 -0 0 -0 -0
15 15 13 14 10 8 7 5 5 5 5 5 4 3 3 3 3 4 5 6 5 4 4 4 3 3 4 4 4 3 2 1 1 1 1 2 1 0 -0 -1 -1 -1 -1 -1
13 13 12 10 9 7 6 6 6 5 4 4 4 5 5 6 6 6 5 5 4 4 4 4 3 3 3 3 3 3 2 2 2 1 2 1 0 -0 -1 -1 -1 -1 -1 -1
11 11 10 8 7 7 7 6 5 4 6 6 5 5 5 5 5 5 5 3 1 1 1 1 2 2 1 2 2 2 2 3 3 2 2 -0 -0 -0 -1 -1 -1 -1 -1 -2
6 5 6 6 7 7 7 7 6 5 5 3 2 0 1 1 3 2 2 0 -0 -1 -0 0 0 1 0 1 1 1 1 1 1 1 1 0 -0 -1 -1 -1 -1 -2 -1 -1
7 7 8 7 6 6 6 5 4 3 2 0 -1 -1 -1 -1 -0 -0 -2 -2 -2 -2 -0 0 -1 -1 -2 -1 -1 -1 -1 -0 -0 -0 -0 -1 -1 -2 -2 -2 -2 -2 -2 -2
8 7 7 7 7 6 5 3 3 1 -0 -1 -1 -2 -2 -2 -2 -2 -2 -2 -1 -0 -1 -2 -2 -3 -2 -2 -2 -3 -3 -3 -2 -2 -2 -2 -2 -2 -2 -2 -2 -3 -2 -2
7 6 6 5 4 3 2 1 3 1 -1 -2 -2 -2 -3 -2 -2 -2 -2 -2 -1 -4 -4 -4 -4 -3 -3 -3 -4 -4 -3 -3 -3 -3 -3 -2 -3 -3 -3 -3 -3 -3 -2 -3
6 4 3 2 0 0 -0 -0 -1 -1 -2 -3 -3 -4 -4 -3 -3 -3 -2 -2 -3 -5 -6 -6 -5 -6 -7 -7 -6 -5 -5 -4 -4 -3 -3 -3 -3 -3 -3 -3 -4 -4 -4 -3
4 2 1 1 1 0 -1 -1 -3 -3 -3 -4 -4 -4 -5 -3 -3 -3 -3 -5 -6 -7 -8 -7 -7 -9 -9 -8 -7 -6 -6 -6 -4 -4 -3 -3 -4 -5 -5 -5 -6 -6 -6 -6
2 2 1 1 2 0 -1 -2 -3 -3 -4 -4 -4 -5 -5 -5 -5 -5 -5 -7 -8 -8 -9 -9 -10 -10 -11 -10 -9 -9 -9 -9 -9 -8 -8 -7 -7 -7 -8 -8 -8 -8 -9 -9
2 2 1 -0 -0 -0 0 -1 -1 -2 -3 -3 -4 -5 -6 -6 -6 -6 -8 -8 -9 -9 -10 -10 -11 -11 -12 -12 -11 -12 -11 -11 -12 -12 -11 -11 -10 -10 -10 -10 -11 -11 -11 -10
1 1 0 0 1 0 -1 -2 -2 -2 -3 -4 -5 -6 -6 -7 -7 -8 -9 -9 -10 -10 -10 -11 -11 -12 -13 -13 -13 -13 -13 -13 -14 -14 -14 -13 -13 -13 -13 -13 -13 -13 -13 -12
1 1 -1 -2 -2 -2 -3 -4 -4 -4 -5 -5 -6 -7 -7 -8 -8 -9 -10 -10 -10 -11 -11 -12 -12 -13 -13 -14 -14 -14 -15 -15 -15 -16 -16 -16 -15 -15 -15 -15 -15 -15 -14 -14
-2 -1 -1 -2 -3 -5 -6 -6 -6 -7 -7 -8 -8 -9 -8 -8 -9 -10 -11 -11 -11 -12 -12 -13 -13 -14 -14 -15 -15 -15 -16 -16 -16 -17 -17 -17 -17 -17 -17 -17 -16 -16 -15 -15

GFSNGP_925_temp_042.txt.gz
Temp
20 21 22 22 22 21 20 19 17 19 18 20 22 20 20 19 21 19 19 19 17 15 14 15 16 15 15 15 14 13 12 12 11 10 9 9 8 8 8 7 7 7 6 6
20 19 20 21 21 20 20 21 19 20 20 17 18 18 17 18 18 17 17 17 17 16 14 14 15 14 13 13 12 11 10 9 9 9 9 9 8 7 7 7 6 6 6 6
16 15 17 14 17 19 20 20 21 18 18 18 16 17 17 15 16 15 15 15 16 15 14 14 14 14 12 11 10 10 10 9 9 8 7 7 6 5 4 5 6 5 6 5
11 12 13 17 19 19 17 17 17 17 17 16 15 14 14 14 14 14 14 13 11 11 11 12 12 11 10 9 9 8 7 7 7 6 5 4 3 4 4 4 5 5 5 5
12 12 15 18 20 18 17 17 18 16 16 16 15 14 14 13 11 10 10 9 8 8 7 8 8 8 8 7 6 5 4 4 4 4 3 4 4 4 4 4 4 4 5 5
10 12 12 15 19 18 17 14 17 15 15 16 15 12 13 11 9 7 7 6 6 5 5 5 5 6 5 4 4 3 3 4 5 5 4 4 3 3 4 4 4 4 4 4
6 9 11 15 18 19 16 14 15 15 15 15 13 12 10 7 6 6 5 5 5 4 4 4 5 5 4 4 4 5 5 5 4 3 3 3 3 3 4 4 4 3 3 3
9 9 14 16 18 17 14 14 14 14 13 11 10 9 8 7 6 5 4 4 4 4 4 5 6 7 5 6 5 5 4 4 3 3 3 3 3 3 3 3 3 3 3 2
12 12 14 14 16 14 13 13 13 12 12 11 8 7 6 5 4 4 4 4 5 5 5 5 5 5 4 4 4 4 4 4 3 3 3 3 3 3 2 2 2 2 2 2
14 14 13 13 12 12 11 10 10 10 9 9 7 6 5 4 4 4 5 4 4 4 4 4 4 4 4 4 4 4 3 3 3 3 3 3 2 2 2 2 1 1 1 1
11 13 12 11 11 9 9 8 7 7 7 6 5 4 4 4 4 4 3 3 4 4 4 4 4 4 4 4 3 3 3 3 3 3 3 2 2 2 1 1 1 1 1 1
11 13 11 10 9 9 8 7 7 6 5 4 4 3 3 2 3 3 3 3 3 3 3 3 3 3 3 2 2 2 2 2 2 2 2 2 2 2 2 2 2 1 1 1
11 10 9 7 7 7 6 5 5 4 3 2 2 2 2 2 2 3 3 3 3 2 2 2 1 1 1 1 1 1 0 0 0 -0 -0 -1 -1 -1 -2 -1 -0 0 1 0
9 8 7 7 5 5 4 4 3 3 2 2 2 2 2 2 2 1 1 1 1 1 -0 -1 -1 -1 -1 -1 -1 -1 -1 -1 -2 -2 -3 -3 -2 -2 -2 -2 -2 -2 -1 -1
8 8 6 5 5 4 3 3 3 2 1 1 2 2 2 1 -1 -1 -1 -0 -0 -1 -3 -3 -3 -3 -3 -2 -3 -3 -3 -4 -4 -4 -4 -4 -4 -3 -3 -2 -2 -2 -2 -2
6 5 5 4 4 3 3 2 2 1 1 0 -0 0 -0 -1 -1 -2 -1 -2 -3 -3 -3 -4 -4 -4 -4 -5 -5 -5 -6 -6 -5 -5 -5 -5 -5 -4 -4 -3 -3 -2 -2 -3
4 3 4 4 4 4 3 2 2 1 -1 -2 -3 -1 -1 -1 -2 -2 -2 -3 -3 -4 -5 -6 -6 -6 -6 -6 -7 -7 -7 -7 -7 -7 -7 -6 -6 -6 -5 -5 -4 -3 -2 -3
5 5 5 5 4 3 2 1 -0 -2 -2 -2 -2 -2 -2 -2 -3 -3 -4 -4 -4 -6 -7 -7 -7 -7 -7 -8 -9 -9 -9 -9 -9 -8 -8 -8 -8 -7 -6 -5 -4 -4 -4 -3
5 5 5 4 4 2 1 -1 -2 -2 -3 -2 -2 -3 -3 -3 -3 -4 -5 -5 -7 -8 -8 -8 -9 -9 -10 -10 -10 -10 -11 -10 -11 -11 -11 -11 -10 -8 -8 -8 -7 -5 -5 -5
5 5 4 2 1 -0 -2 -3 -3 -3 -3 -3 -3 -4 -4 -4 -4 -5 -6 -8 -9 -9 -9 -10 -10 -11 -12 -11 -12 -12 -12 -12 -13 -13 -13 -13 -12 -11 -11 -11 -11 -10 -10 -10
2 1 0 -0 -1 -1 -2 -2 -3 -4 -4 -3 -4 -4 -5 -5 -5 -5 -7 -7 -9 -9 -10 -10 -11 -12 -12 -12 -13 -14 -13 -14 -15 -15 -15 -15 -14 -13 -13 -14 -13 -13 -12 -12
1 -1 -1 -2 -2 -3 -3 -3 -3 -4 -5 -5 -5 -5 -5 -6 -7 -8 -8 -9 -10 -10 -11 -11 -12 -12 -13 -13 -14 -15 -15 -16 -16 -16 -16 -16 -16 -15 -15 -15 -15 -15 -14 -14
-1 -1 -2 -2 -2 -3 -3 -3 -3 -4 -5 -5 -6 -6 -6 -7 -7 -8 -9 -10 -10 -11 -11 -12 -13 -13 -14 -14 -15 -15 -16 -16 -17 -17 -17 -17 -17 -18 -18 -17 -17 -17 -16 -16
-1 -1 -2 -2 -3 -4 -4 -4 -4 -4 -5 -6 -6 -7 -7 -8 -9 -9 -10 -10 -11 -12 -12 -13 -13 -14 -14 -15 -15 -16 -16 -17 -17 -18 -18 -18 -19 -19 -19 -19 -19 -18 -18 -17
-1 -1 -2 -3 -3 -3 -4 -4 -5 -6 -6 -7 -7 -8 -8 -8 -9 -10 -11 -11 -12 -12 -13 -13 -14 -14 -15 -15 -16 -16 -17 -17 -18 -19 -19 -19 -20 -20 -20 -20 -20 -19 -19 -19
-2 -3 -4 -4 -5 -5 -5 -5 -7 -7 -7 -8 -8 -9 -9 -10 -10 -11 -11 -12 -13 -13 -14 -14 -15 -15 -16 -16 -17 -17 -18 -18 -18 -19 -20 -20 -20 -20 -21 -21 -21 -21 -20 -20
-5 -5 -6 -7 -7 -7 -7 -7 -8 -8 -8 -9 -9 -10 -10 -11 -11 -12 -12 -13 -14 -14 -15 -15 -16 -16 -17 -17 -17 -18 -18 -19 -19 -20 -20 -21 -21 -21 -21 -21 -21 -21 -21 -21

GFSNGP_925_temp_045.txt.gz
Temp
18 20 20 21 21 18 18 18 16 18 16 19 20 19 18 18 18 17 17 16 15 14 13 14 14 14 13 13 12 11 10 9 9 10 9 9 8 8 8 7 6 6 5 5
19 18 18 20 20 18 18 19 17 18 18 18 17 17 15 15 15 15 15 15 16 15 14 13 14 13 12 11 11 10 9 9 9 9 8 8 7 6 5 5 5 5 4 4
17 15 17 14 16 18 19 19 19 18 17 17 16 15 14 14 14 14 13 12 11 11 12 12 12 11 10 10 9 9 8 8 8 7 6 5 5 5 5 5 4 4 3 4
11 12 13 18 18 18 17 16 16 16 16 15 13 12 12 11 12 11 10 9 8 7 7 8 9 9 8 8 8 7 6 5 5 4 4 5 5 5 4 3 3 4 4 5
12 12 15 18 16 16 17 17 17 14 13 13 13 13 12 9 8 7 6 5 5 5 5 6 6 6 6 5 4 4 3 4 4 5 5 4 3 3 3 3 4 4 4 4
9 12 13 15 17 17 16 14 16 14 14 13 14 12 11 7 6 5 5 4 4 4 4 4 4 4 4 3 4 4 5 5 4 4 4 3 3 3 3 3 4 4 3 3
7 9 12 14 17 17 16 14 14 13 13 13 13 10 7 5 5 4 4 4 4 4 4 4 5 6 5 5 5 4 5 5 4 4 3 3 3 3 3 3 3 3 3 3
8 8 14 15 16 16 14 13 13 12 11 9 7 6 6 5 4 4 4 4 5 4 4 5 5 5 4 4 3 4 4 4 3 3 3 3 3 3 3 2 2 2 2 2
12 12 14 14 15 14 13 13 12 11 9 8 7 6 5 4 4 4 4 4 4 4 4 4 4 4 4 4 4 4 4 3 3 3 3 3 2 2 2 2 1 1 1 1
13 14 12 11 10 10 11 10 10 10 8 8 6 5 4 4 3 3 4 4 4 4 3 3 4 3 3 3 3 3 3 3 2 2 2 2 2 2 1 2 2 1 -0 -1
11 12 12 10 9 8 7 7 7 6 7 6 5 4 4 3 3 3 3 3 3 3 2 2 2 1 1 2 2 2 1 1 0 0 -0 -0 -0 -0 -0 0 0 -1 -1 -1
10 12 12 10 8 7 7 6 6 5 4 4 4 3 3 2 2 3 2 2 2 1 1 0 0 -0 -0 -0 -0 -1 -1 -1 -2 -2 -2 -2 -3 -3 -2 -2 -1 -1 -1 -1
13 12 8 7 6 6 5 5 4 4 3 2 3 2 2 1 1 2 1 1 0 -1 -1 -1 -2 -2 -2 -2 -2 -2 -3 -3 -4 -4 -4 -5 -4 -4 -4 -4 -3 -3 -2 -2
8 8 6 6 5 4 4 3 3 2 2 2 1 1 0 -0 0 -0 -1 -1 -1 -2 -3 -4 -3 -4 -4 -3 -3 -4 -4 -5 -5 -6 -6 -6 -6 -6 -6 -5 -5 -4 -4 -3
7 7 6 4 3 3 3 3 2 1 1 0 1 0 -0 -1 -2 -2 -2 -2 -2 -3 -4 -4 -4 -5 -5 -5 -5 -6 -6 -7 -7 -7 -7 -7 -7 -7 -7 -6 -6 -6 -5 -4
5 4 4 3 3 3 2 2 1 0 -0 0 -0 -1 -1 -2 -2 -3 -3 -2 -4 -6 -6 -5 -6 -7 -7 -7 -7 -8 -8 -8 -8 -8 -8 -8 -8 -8 -8 -7 -7 -6 -5 -5
4 3 2 2 2 2 2 2 2 1 -0 -1 -2 -2 -2 -3 -3 -4 -5 -5 -5 -6 -7 -7 -8 -8 -8 -9 -9 -10 -10 -10 -10 -10 -10 -10 -10 -10 -9 -8 -9 -10 -10 -8
5 5 4 4 3 3 2 1 -1 -1 -2 -2 -2 -2 -2 -3 -4 -5 -6 -6 -6 -7 -8 -9 -9 -9 -10 -10 -11 -11 -11 -12 -12 -12 -12 -13 -13 -12 -11 -12 -11 -11 -11 -11
5 4 4 4 3 2 0 -1 -1 -2 -3 -3 -3 -4 -3 -4 -5 -6 -6 -7 -8 -8 -8 -10 -10 -10 -11 -11 -12 -12 -12 -13 -13 -13 -14 -14 -14 -14 -14 -14 -14 -13 -13 -12
5 4 3 2 1 -0 -2 -2 -3 -3 -3 -3 -4 -4 -5 -5 -5 -6 -7 -9 -9 -9 -10 -10 -11 -11 -12 -12 -13 -13 -14 -15 -15 -15 -15 -16 -16 -16 -16 -16 -16 -16 -15 -14
2 1 0 -1 -2 -2 -2 -3 -3 -4 -4 -4 -4 -5 -6 -6 -6 -7 -7 -8 -10 -10 -10 -11 -11 -12 -13 -13 -14 -15 -15 -16 -16 -17 -17 -17 -17 -17 -17 -17 -17 -17 -17 -16
0 -1 -2 -2 -2 -3 -3 -3 -3 -4 -4 -5 -5 -6 -6 -7 -7 -8 -9 -9 -10 -10 -11 -11 -12 -13 -14 -14 -15 -15 -16 -16 -17 -17 -18 -18 -18 -19 -19 -19 -19 -19 -18 -18
-1 -1 -2 -2 -2 -3 -4 -4 -4 -4 -5 -5 -5 -6 -6 -7 -8 -9 -9 -10 -10 -11 -12 -12 -13 -13 -14 -15 -15 -16 -16 -17 -17 -18 -18 -19 -19 -19 -20 -20 -20 -20 -20 -19
-2 -2 -3 -3 -3 -4 -4 -5 -5 -5 -5 -6 -6 -6 -7 -8 -9 -9 -10 -10 -11 -12 -12 -13 -14 -14 -15 -15 -16 -16 -17 -17 -18 -18 -19 -19 -19 -20 -20 -20 -20 -20 -20 -20
-2 -3 -3 -3 -3 -3 -4 -5 -6 -7 -7 -7 -8 -7 -8 -8 -8 -10 -11 -11 -12 -13 -13 -14 -14 -15 -15 -16 -16 -17 -17 -18 -18 -19 -20 -20 -20 -20 -20 -20 -21 -21 -21 -21
-3 -3 -3 -4 -5 -5 -6 -6 -7 -7 -8 -9 -9 -9 -9 -9 -10 -11 -12 -12 -13 -14 -14 -15 -15 -16 -16 -17 -17 -17 -18 -18 -19 -20 -20 -21 -21 -21 -21 -21 -21 -21 -21 -21
-6 -6 -7 -7 -7 -7 -7 -7 -8 -8 -8 -9 -9 -10 -10 -11 -12 -12 -13 -13 -14 -14 -15 -15 -16 -16 -17 -17 -18 -18 -19 -19 -19 -20 -21 -21 -21 -21 -21 -21 -22 -21 -21 -21

GFSNGP_925_temp_048.txt.gz
Temp
18 19 19 19 19 16 17 17 17 18 15 17 18 17 16 16 16 16 16 15 14 14 12 12 13 13 12 12 11 10 9 8 8 8 8 8 8 7 7 7 6 5 5 4
18 18 18 19 19 16 17 18 17 17 17 16 17 15 14 14 14 13 12 11 10 11 13 12 12 11 11 11 10 9 8 8 8 8 8 7 6 5 5 5 5 5 4 3
17 15 17 14 16 17 17 17 17 16 17 15 15 14 13 12 12 11 9 8 8 7 7 8 9 9 8 8 8 8 7 6 6 6 5 5 5 5 5 5 5 4 3 3
11 12 14 18 16 17 16 16 16 16 15 14 13 9 8 7 10 8 7 6 5 5 5 6 6 6 6 7 6 5 4 4 5 5 5 5 5 5 4 3 3 3 3 3
12 12 15 18 16 15 16 16 14 14 12 11 10 11 9 6 5 5 4 4 3 4 4 4 4 4 5 4 4 4 4 5 5 5 4 4 4 3 3 3 3 3 3 3
9 12 13 15 16 15 16 14 14 12 11 12 11 12 10 6 5 4 3 3 3 3 4 4 4 5 4 4 4 4 5 4 4 4 4 4 3 3 3 3 3 3 3 3
6 10 12 14 16 16 16 14 13 13 12 11 13 10 5 4 3 3 3 3 3 3 3 3 4 5 4 4 3 4 4 4 4 4 3 3 3 3 3 2 2 2 2 2
8 9 14 14 15 15 14 13 12 12 11 9 5 5 4 4 3 3 3 3 3 3 4 4 5 5 3 3 3 3 4 3 3 3 3 2 2 2 2 2 1 1 1 1
13 13 14 13 14 14 12 12 11 11 9 7 5 4 4 3 3 3 3 3 3 3 3 3 3 3 2 2 3 3 3 2 2 1 1 1 1 0 0 0 -0 -0 -1 -1
13 13 12 12 11 11 12 11 10 9 8 7 5 4 3 3 3 2 3 3 3 2 1 1 1 1 1 2 2 2 1 0 -0 -0 -0 -0 -0 -1 -1 -2 -2 -3 -3 -2
11 11 11 10 9 9 7 7 7 6 6 5 4 4 3 2 2 2 2 2 2 1 -0 -1 -0 -1 -0 -0 0 -0 -1 -1 -2 -2 -3 -3 -3 -4 -4 -4 -4 -4 -4 -4
13 12 13 12 7 7 7 6 6 5 4 4 4 3 2 2 2 2 1 1 0 -1 -2 -2 -2 -2 -2 -2 -2 -2 -3 -4 -4 -5 -5 -5 -6 -6 -6 -6 -6 -6 -5 -5
15 11 7 7 5 6 5 4 4 4 4 3 2 2 2 0 0 1 0 -0 -2 -3 -3 -3 -3 -4 -4 -4 -3 -4 -5 -6 -6 -6 -7 -7 -7 -7 -7 -7 -7 -7 -6 -6
8 8 7 7 5 4 3 3 3 2 2 2 1 1 0 -1 -0 -1 -1 -2 -3 -3 -4 -4 -5 -5 -5 -5 -5 -5 -6 -7 -7 -8 -8 -8 -8 -8 -8 -8 -8 -8 -8 -7
6 6 7 4 3 2 2 2 1 1 0 -0 0 -0 -1 -1 -2 -3 -2 -3 -4 -4 -5 -5 -6 -7 -6 -6 -7 -7 -8 -9 -9 -9 -9 -9 -10 -10 -10 -10 -9 -9 -10 -10
4 4 4 3 2 2 2 2 1 0 0 -0 -0 -1 -2 -2 -3 -3 -4 -4 -4 -6 -7 -7 -7 -8 -8 -8 -8 -9 -10 -10 -10 -10 -11 -11 -11 -12 -11 -11 -11 -11 -12 -12
3 3 2 2 2 2 2 1 1 1 1 0 -1 -2 -3 -4 -4 -5 -6 -5 -6 -7 -7 -8 -9 -9 -9 -10 -10 -11 -11 -11 -11 -11 -12 -13 -13 -13 -14 -13 -14 -14 -14 -14
5 4 4 3 2 1 1 1 1 1 -0 -2 -2 -3 -4 -4 -4 -6 -7 -7 -7 -8 -9 -9 -9 -10 -11 -11 -11 -12 -12 -13 -13 -14 -14 -14 -15 -15 -15 -16 -16 -16 -16 -15
4 4 3 3 3 2 1 0 -1 -2 -3 -3 -3 -4 -4 -5 -6 -7 -7 -7 -8 -8 -10 -10 -10 -11 -12 -12 -12 -13 -13 -14 -14 -15 -15 -16 -16 -16 -17 -17 -17 -17 -17 -17
4 4 3 2 1 0 -1 -2 -2 -3 -3 -3 -4 -5 -6 -6 -6 -7 -7 -8 -9 -9 -10 -10 -11 -11 -12 -13 -13 -14 -14 -15 -15 -16 -16 -17 -17 -17 -18 -18 -18 -18 -18 -18
2 1 0 -0 -1 -2 -2 -2 -3 -3 -4 -4 -4 -6 -6 -7 -7 -7 -8 -9 -10 -10 -10 -11 -11 -12 -13 -13 -14 -15 -15 -16 -16 -17 -18 -18 -18 -18 -19 -19 -19 -19 -19 -19
0 -1 -2 -2 -2 -3 -4 -3 -4 -4 -4 -5 -5 -6 -7 -8 -8 -8 -8 -9 -10 -10 -11 -11 -12 -13 -13 -14 -14 -15 -16 -16 -17 -17 -18 -19 -19 -19 -19 -20 -20 -20 -20 -20
-1 -2 -2 -3 -3 -4 -5 -4 -4 -4 -5 -5 -6 -7 -7 -8 -8 -9 -10 -10 -10 -11 -11 -12 -13 -13 -14 -15 -15 -16 -16 -17 -17 -18 -19 -19 -20 -20 -20 -20 -20 -21 -21 -21
-2 -2 -3 -4 -4 -4 -4 -5 -5 -5 -5 -6 -6 -6 -7 -8 -9 -9 -9 -10 -11 -11 -12 -13 -13 -14 -15 -15 -16 -16 -17 -18 -18 -19 -19 -20 -20 -20 -20 -20 -20 -21 -21 -21
-3 -3 -4 -4 -4 -5 -5 -6 -6 -7 -7 -7 -7 -7 -8 -8 -8 -10 -10 -11 -11 -12 -13 -14 -14 -15 -15 -16 -17 -17 -18 -18 -19 -19 -20 -20 -20 -20 -20 -21 -21 -21 -21 -21
-4 -4 -5 -5 -5 -5 -6 -6 -7 -8 -8 -9 -9 -9 -9 -9 -10 -11 -11 -12 -12 -13 -14 -15 -15 -16 -16 -17 -17 -18 -18 -19 -19 -19 -20 -20 -21 -21 -21 -21 -21 -21 -21 -21
-6 -7 -7 -8 -8 -7 -7 -7 -8 -9 -9 -9 -9 -10 -10 -11 -11 -12 -12 -13 -14 -14 -15 -15 -16 -17 -17 -17 -18 -18 -19 -19 -19 -20 -20 -21 -21 -21 -21 -21 -21 -22 -22 -21

GFSNGP_925_temp_051.txt.gz
Temp
18 19 19 20 20 18 19 19 20 21 18 21 21 21 19 17 17 17 16 15 15 16 15 14 14 12 11 11 11 10 10 8 7 7 7 7 7 7 6 6 6 5 5 5
18 17 18 19 19 18 18 18 18 19 18 20 18 17 16 16 15 15 13 12 12 12 13 13 11 10 9 8 8 8 7 6 6 7 7 6 6 5 5 4 3 4 4 4
18 16 17 16 17 18 18 18 20 18 20 17 17 16 15 14 14 12 11 10 10 9 9 8 8 8 7 7 6 6 6 5 5 6 5 5 5 4 4 4 4 4 3 3
14 13 16 20 17 18 19 18 18 17 18 17 17 12 11 11 12 10 9 8 7 7 7 6 6 6 6 6 5 5 5 4 4 5 5 5 5 4 4 4 3 3 2 2
15 16 17 18 17 18 18 21 18 18 17 14 12 12 11 8 8 8 7 6 5 5 5 5 5 5 5 5 5 5 4 4 5 5 4 4 4 4 3 3 2 2 2 2
12 16 17 18 18 16 18 18 17 16 14 13 13 16 15 8 7 6 5 5 5 4 4 5 5 5 5 5 5 5 4 3 4 4 4 4 4 3 3 2 2 2 2 2
12 15 16 16 16 16 18 20 16 15 14 14 15 14 10 7 6 5 5 4 4 4 4 4 4 5 5 4 4 3 3 3 3 3 3 3 2 2 1 1 1 1 1 1
12 14 17 15 15 18 19 15 15 14 14 13 8 7 7 6 5 5 5 4 5 4 4 3 4 4 4 3 3 2 2 2 2 2 1 1 1 0 0 -0 -1 -1 -1 -1
16 17 16 15 18 16 14 16 13 14 12 9 7 7 6 5 5 5 5 4 4 3 3 2 3 3 2 1 2 2 1 -0 -0 -0 -0 -1 -1 -1 -1 -2 -2 -2 -2 -2
16 16 15 14 13 13 13 14 13 13 11 9 8 6 6 5 5 5 4 4 3 3 2 1 0 -0 -0 0 1 0 -1 -2 -2 -2 -2 -3 -3 -3 -3 -3 -4 -3 -4 -4
14 14 12 13 12 13 11 10 10 10 9 9 7 6 5 5 5 4 3 3 2 1 0 -1 -2 -2 -1 -1 -1 -1 -2 -3 -3 -4 -4 -4 -4 -5 -5 -5 -6 -6 -5 -6
15 17 17 17 14 10 10 10 9 8 7 7 7 5 5 4 4 3 2 2 1 -1 -2 -3 -4 -4 -4 -3 -3 -3 -3 -4 -5 -5 -5 -5 -5 -5 -6 -7 -7 -7 -7 -8
16 12 9 7 8 8 8 8 7 7 6 5 5 4 4 3 2 1 1 0 -1 -2 -4 -4 -4 -5 -5 -5 -4 -5 -5 -6 -6 -6 -6 -6 -7 -7 -7 -7 -8 -8 -9 -9
9 10 9 8 8 6 6 5 5 4 4 4 3 2 2 1 1 0 -0 -2 -3 -4 -4 -4 -5 -6 -6 -6 -6 -7 -7 -8 -8 -8 -8 -8 -8 -9 -8 -8 -9 -9 -9 -10
9 7 9 6 5 4 4 4 3 3 2 2 2 1 1 1 -0 -2 -2 -3 -4 -4 -5 -5 -6 -7 -7 -7 -7 -7 -8 -8 -9 -9 -10 -10 -10 -10 -10 -10 -10 -10 -10 -11
6 6 5 5 4 3 4 3 2 2 2 2 1 1 0 -1 -2 -3 -4 -4 -4 -5 -6 -7 -8 -8 -8 -8 -8 -8 -9 -11 -11 -10 -11 -11 -11 -11 -11 -11 -12 -12 -12 -13
5 4 3 3 4 3 3 3 2 2 1 2 0 -1 -2 -3 -4 -4 -5 -6 -6 -7 -8 -8 -8 -9 -9 -9 -10 -10 -10 -11 -12 -12 -12 -13 -13 -13 -13 -13 -13 -14 -14 -15
5 5 5 4 3 2 2 2 2 2 1 -1 -2 -3 -3 -3 -4 -5 -7 -8 -8 -8 -9 -9 -9 -10 -10 -11 -11 -12 -12 -13 -13 -13 -14 -14 -15 -15 -15 -15 -15 -15 -15 -16
5 4 3 3 3 3 2 2 1 -1 -3 -3 -3 -3 -4 -5 -5 -7 -7 -8 -8 -8 -9 -10 -10 -11 -12 -12 -13 -13 -14 -14 -14 -15 -16 -16 -16 -17 -17 -17 -17 -17 -17 -17
3 3 2 2 1 1 -1 -2 -2 -3 -3 -4 -4 -5 -6 -7 -7 -7 -7 -7 -7 -8 -10 -10 -11 -12 -12 -12 -13 -14 -14 -15 -16 -16 -17 -17 -18 -18 -18 -18 -19 -18 -18 -18
1 1 0 -0 -1 -2 -2 -3 -3 -4 -5 -4 -4 -5 -6 -7 -7 -7 -8 -8 -9 -10 -10 -10 -11 -12 -13 -14 -14 -14 -15 -16 -17 -17 -18 -19 -19 -19 -19 -20 -20 -20 -20 -19
-0 -1 -2 -2 -2 -3 -3 -4 -4 -5 -5 -5 -6 -6 -7 -8 -8 -8 -8 -8 -10 -10 -11 -12 -12 -12 -13 -14 -14 -15 -16 -16 -17 -18 -19 -19 -20 -20 -20 -21 -21 -21 -21 -21
-2 -2 -2 -3 -3 -4 -5 -5 -5 -5 -5 -6 -6 -7 -7 -8 -8 -8 -8 -10 -10 -11 -11 -12 -13 -13 -14 -14 -15 -15 -16 -17 -17 -18 -19 -19 -20 -21 -21 -22 -22 -22 -22 -22
-3 -3 -4 -5 -5 -4 -5 -6 -6 -7 -6 -6 -6 -6 -7 -9 -9 -9 -9 -10 -11 -11 -12 -13 -13 -14 -14 -15 -15 -16 -17 -17 -18 -18 -19 -19 -20 -20 -21 -21 -21 -21 -22 -22
-3 -3 -4 -4 -5 -5 -6 -7 -7 -7 -7 -8 -8 -8 -8 -8 -8 -10 -10 -11 -12 -12 -13 -13 -14 -15 -15 -16 -16 -17 -17 -18 -18 -19 -19 -20 -21 -21 -21 -21 -21 -21 -21 -21
-5 -6 -6 -6 -6 -6 -7 -7 -7 -8 -8 -9 -9 -9 -9 -9 -9 -10 -11 -12 -12 -13 -14 -14 -15 -15 -16 -16 -17 -17 -18 -18 -19 -19 -20 -20 -21 -21 -21 -21 -21 -21 -21 -21
-7 -7 -7 -8 -8 -8 -8 -8 -8 -9 -9 -9 -10 -10 -10 -11 -11 -12 -12 -13 -13 -14 -14 -15 -16 -16 -17 -17 -18 -18 -18 -19 -19 -20 -20 -21 -21 -22 -22 -22 -22 -22 -21 -21

GFSNGP_925_temp_057.txt.gz
Temp
25 26 27 27 26 26 26 26 24 25 26 27 28 28 29 29 28 27 27 27 27 27 25 23 22 21 16 14 13 12 10 9 8 8 8 7 7 6 6 5 5 5 4 4
24 26 26 26 27 27 27 27 26 26 26 28 29 29 28 27 27 26 26 26 26 26 25 22 20 19 16 13 11 10 9 9 9 9 9 9 8 8 7 6 5 5 5 5
22 25 25 23 25 26 27 27 27 25 27 28 28 28 27 27 26 26 24 23 23 23 22 19 17 16 15 13 11 11 10 10 10 10 9 8 8 8 7 6 6 5 5 4
21 18 19 24 27 27 26 27 27 27 28 28 28 28 27 26 26 23 22 21 20 20 18 17 16 15 14 13 12 11 11 10 9 9 9 8 7 7 6 6 6 5 5 5
20 21 23 25 25 25 25 26 28 27 28 28 28 25 22 22 24 21 20 19 18 17 16 15 15 14 14 13 12 11 10 10 9 8 7 8 7 7 6 6 6 7 7 6
20 20 20 23 26 27 27 24 27 28 27 27 25 22 25 21 21 19 18 17 16 16 15 15 14 14 13 12 12 11 10 9 8 8 8 7 7 7 7 7 6 6 6 5
19 20 22 26 26 28 22 23 28 28 27 26 25 25 22 20 18 17 16 16 15 15 15 14 13 13 13 11 10 9 8 8 7 7 7 7 6 6 6 6 5 4 4 3
19 19 19 24 25 24 25 27 27 27 27 26 25 20 19 18 17 17 16 14 15 14 13 13 13 12 11 10 9 8 7 7 7 6 6 6 6 5 5 5 4 3 2 2
21 22 24 23 24 26 27 27 27 26 26 25 21 19 18 17 16 16 15 15 14 13 12 12 12 11 11 9 8 7 7 6 6 5 5 5 5 4 5 4 3 2 1 1
21 23 24 24 24 24 25 26 26 26 25 24 20 19 17 16 16 15 15 14 13 12 12 11 11 10 9 8 7 6 6 5 5 5 4 4 4 3 3 1 0 0 0 -1
21 23 24 24 23 22 24 24 24 23 24 23 20 18 17 16 15 16 15 13 12 11 10 9 9 7 7 6 6 6 5 4 4 3 3 3 2 1 -1 -3 -4 -3 -3 -4
20 22 21 22 23 23 24 24 22 22 22 21 20 18 17 16 15 15 14 12 11 10 8 7 6 6 6 5 5 5 4 3 2 1 1 2 2 -1 -3 -3 -4 -6 -7 -7
22 22 22 23 20 21 23 24 23 21 21 20 19 17 16 15 14 13 12 11 10 8 6 5 4 3 3 3 4 3 2 1 -1 0 0 0 -1 -1 -0 -5 -5 -5 -7 -7
22 20 18 19 21 19 18 21 18 20 20 19 18 16 15 14 12 11 11 9 7 5 4 3 2 1 1 1 0 -0 -1 -1 -0 -1 -1 -2 -2 -2 -3 -3 -4 -4 -6 -7
20 20 18 16 16 16 16 16 16 17 17 16 16 15 13 12 11 10 8 6 4 3 2 2 1 0 -0 -1 -1 -1 -1 -1 -2 -3 -4 -4 -4 -4 -4 -5 -5 -5 -5 -6
20 19 18 16 17 15 14 13 15 14 14 14 13 13 11 9 8 6 4 3 3 2 1 -2 -2 -2 -2 -1 -1 -3 -5 -5 -4 -4 -5 -5 -5 -5 -5 -5 -6 -6 -6 -6
15 16 15 15 15 14 13 13 13 12 12 11 11 9 8 7 4 3 1 -3 -4 -5 -4 -3 -3 -4 -4 -3 -2 -2 -3 -6 -6 -5 -5 -6 -6 -6 -7 -7 -7 -7 -8 -8
14 14 14 14 15 13 12 11 11 9 9 8 6 3 2 2 -0 -3 -5 -6 -6 -6 -6 -7 -7 -6 -5 -5 -5 -5 -6 -6 -7 -7 -7 -8 -9 -8 -8 -8 -8 -9 -9 -9
11 11 10 11 11 11 10 8 7 4 0 -0 -0 -1 -3 -4 -5 -6 -6 -7 -7 -7 -8 -9 -9 -7 -8 -9 -7 -8 -8 -8 -8 -8 -9 -10 -10 -9 -10 -9 -10 -10 -11 -11
4 5 3 3 2 2 1 -0 -0 -1 -2 -3 -4 -4 -5 -5 -6 -6 -6 -6 -6 -8 -9 -9 -8 -9 -10 -10 -9 -9 -9 -10 -9 -10 -10 -11 -10 -11 -11 -11 -12 -12 -11 -11
-0 -1 -1 -1 -1 -2 -2 -2 -3 -3 -3 -4 -4 -5 -5 -5 -6 -6 -6 -7 -8 -9 -9 -9 -9 -9 -9 -10 -9 -10 -10 -10 -11 -11 -11 -11 -11 -11 -12 -12 -12 -12 -12 -13
-1 -1 -1 -2 -2 -2 -3 -3 -3 -4 -4 -5 -5 -6 -6 -6 -6 -6 -6 -8 -9 -9 -8 -9 -9 -10 -11 -11 -10 -11 -11 -11 -12 -12 -12 -12 -12 -12 -13 -13 -13 -13 -14 -14
-1 -2 -2 -3 -3 -3 -4 -4 -4 -4 -5 -5 -5 -5 -6 -6 -6 -6 -7 -8 -9 -9 -9 -10 -11 -11 -12 -12 -11 -11 -12 -12 -12 -12 -13 -13 -13 -14 -14 -14 -14 -15 -15 -15
-2 -2 -3 -3 -4 -4 -4 -5 -5 -6 -6 -6 -6 -6 -6 -6 -7 -8 -8 -9 -10 -9 -10 -12 -12 -12 -12 -12 -12 -12 -13 -13 -13 -13 -13 -14 -15 -14 -15 -15 -16 -16 -16 -17
-3 -3 -3 -3 -3 -4 -4 -5 -5 -5 -6 -6 -7 -7 -7 -7 -7 -8 -8 -10 -11 -10 -11 -13 -14 -13 -13 -13 -13 -13 -13 -14 -14 -14 -15 -15 -15 -15 -15 -16 -16 -17 -18 -19
-5 -5 -5 -5 -4 -4 -5 -5 -5 -5 -5 -6 -7 -7 -8 -8 -9 -9 -10 -10 -11 -11 -11 -13 -13 -13 -13 -13 -14 -14 -14 -14 -15 -15 -15 -16 -16 -16 -16 -17 -17 -18 -19 -19
-7 -6 -6 -6 -7 -7 -7 -7 -7 -7 -7 -7 -7 -8 -8 -9 -10 -10 -10 -10 -11 -12 -12 -13 -13 -14 -14 -15 -15 -15 -15 -15 -16 -16 -17 -17 -17 -17 -17 -18 -18 -19 -20 -21

GFSNGP_925_temp_060.txt.gz
Temp
24 25 26 26 26 26 26 24 21 24 25 27 28 28 28 28 28 27 28 27 26 25 24 24 23 18 16 14 13 12 11 10 10 10 9 9 8 7 7 6 6 6 5 5
22 25 25 24 26 27 26 27 27 27 26 29 29 29 29 28 28 27 27 27 27 26 24 23 19 16 14 12 11 10 9 9 9 9 8 7 7 6 6 5 5 5 5 5
20 23 24 22 25 26 27 27 27 25 27 28 28 28 28 28 28 27 27 26 26 26 23 22 18 15 13 11 10 10 10 9 10 10 9 8 8 7 6 6 5 5 5 5
19 17 19 24 26 27 26 27 28 28 28 28 28 29 28 28 27 26 25 24 23 22 20 18 17 14 12 12 11 11 11 11 10 9 9 9 8 7 6 6 5 5 5 5
18 19 22 24 25 25 25 25 27 27 28 28 29 27 24 25 25 24 22 22 21 20 18 17 16 15 13 13 12 11 11 10 10 9 8 8 7 7 6 6 6 6 6 6
16 17 18 22 25 27 26 22 27 27 27 27 26 23 25 23 23 22 21 20 19 18 17 16 15 14 13 12 12 11 11 10 8 8 8 7 7 7 7 7 7 7 6 5
16 16 20 24 25 25 22 22 26 27 27 27 25 25 23 22 21 21 20 19 18 17 16 15 15 14 13 12 12 11 9 9 9 8 8 8 7 7 7 7 6 4 3 3
16 15 16 24 24 23 24 24 26 26 26 26 22 21 21 20 20 19 18 17 17 16 15 15 14 14 13 11 10 9 9 8 8 8 7 7 6 6 6 5 4 3 2 2
17 19 22 21 23 23 23 23 24 25 26 26 21 20 20 19 18 18 17 16 16 15 15 14 14 12 11 10 9 8 8 8 7 7 7 6 6 5 5 3 3 1 1 1
19 21 21 20 22 22 23 23 24 25 26 25 21 20 19 18 18 17 17 16 16 15 14 13 13 12 11 9 8 8 7 6 6 6 5 5 4 4 2 1 1 1 0 -1
20 22 21 21 23 22 22 23 23 24 23 23 22 20 19 18 17 17 16 16 15 14 13 13 12 10 9 8 8 7 6 6 5 4 4 4 2 1 -0 -1 -1 -2 -3 -3
18 21 20 20 22 22 22 23 23 23 22 22 21 20 19 17 17 16 16 15 14 13 12 11 10 9 8 7 7 6 5 4 3 3 3 3 0 -1 -2 -2 -3 -3 -4 -5
20 21 21 22 21 21 20 20 21 23 22 21 21 20 19 17 16 16 15 13 13 11 10 8 8 7 7 7 6 4 2 1 1 1 1 1 1 -1 -4 -5 -5 -5 -5 -6
21 21 20 19 19 18 17 18 19 21 21 21 20 19 17 16 15 15 13 12 11 8 6 5 4 3 3 3 3 2 1 0 1 0 -1 -1 -1 -1 -2 -2 -4 -5 -6 -6
20 21 20 19 17 17 17 16 16 17 18 18 18 17 16 14 13 12 11 8 6 5 4 3 2 1 1 0 -0 -1 -0 -1 -2 -3 -3 -3 -4 -4 -4 -4 -4 -4 -5 -5
17 17 20 19 18 16 16 15 14 14 15 16 15 14 14 13 11 7 6 5 4 3 2 0 -1 -1 -0 -1 -2 -2 -3 -3 -4 -5 -5 -5 -5 -5 -4 -5 -5 -5 -6 -6
14 15 14 14 15 16 15 14 13 14 13 12 11 11 10 6 3 -2 -2 -2 -3 -3 -3 -2 -3 -2 -2 -2 -3 -5 -6 -6 -5 -5 -5 -6 -6 -6 -6 -6 -7 -7 -7 -8
13 13 13 12 13 13 13 12 11 10 8 3 3 2 1 -2 -3 -4 -5 -6 -6 -6 -6 -6 -5 -4 -4 -4 -5 -7 -7 -7 -7 -7 -7 -8 -8 -8 -8 -8 -8 -8 -8 -9
6 6 6 7 8 7 4 2 1 0 -0 -1 -2 -3 -4 -5 -5 -6 -6 -6 -7 -7 -8 -8 -8 -8 -8 -8 -8 -8 -8 -8 -8 -8 -8 -9 -9 -9 -9 -9 -9 -10 -10 -10
1 1 1 0 0 0 -1 -2 -2 -3 -3 -4 -4 -5 -5 -6 -6 -6 -6 -6 -7 -8 -9 -9 -9 -10 -10 -9 -9 -9 -9 -9 -9 -9 -9 -10 -10 -10 -10 -10 -11 -11 -11 -11
-1 -1 -1 -1 -2 -2 -3 -3 -3 -4 -4 -5 -5 -5 -5 -6 -6 -7 -7 -8 -9 -9 -9 -9 -10 -10 -10 -9 -9 -10 -10 -10 -10 -10 -10 -10 -11 -11 -11 -11 -12 -12 -12 -12
-1 -2 -2 -2 -3 -3 -4 -4 -4 -5 -5 -5 -5 -6 -6 -6 -7 -7 -8 -8 -9 -9 -9 -10 -10 -10 -10 -10 -10 -10 -10 -11 -11 -11 -11 -11 -12 -12 -12 -12 -13 -13 -13 -14
-2 -3 -3 -4 -4 -4 -5 -5 -5 -5 -5 -5 -6 -6 -6 -6 -7 -7 -8 -9 -9 -9 -9 -10 -11 -11 -11 -11 -11 -11 -11 -11 -12 -12 -12 -12 -12 -13 -13 -13 -14 -14 -15 -15
-3 -3 -4 -4 -4 -4 -4 -5 -5 -6 -6 -6 -6 -6 -6 -7 -8 -8 -8 -9 -9 -9 -11 -12 -12 -12 -12 -11 -11 -12 -12 -12 -13 -13 -13 -13 -13 -14 -14 -14 -15 -15 -16 -16
-4 -4 -4 -4 -4 -4 -5 -5 -5 -6 -6 -6 -7 -7 -7 -7 -7 -8 -9 -10 -10 -10 -11 -12 -12 -13 -12 -12 -13 -13 -13 -13 -14 -14 -14 -15 -15 -15 -15 -15 -16 -16 -17 -17
-5 -6 -6 -6 -6 -5 -6 -6 -5 -6 -6 -7 -7 -8 -8 -8 -9 -9 -10 -10 -11 -11 -12 -12 -13 -13 -13 -13 -14 -14 -14 -14 -14 -15 -15 -16 -16 -16 -17 -17 -17 -17 -18 -18
-8 -7 -7 -7 -8 -9 -8 -8 -8 -9 -8 -8 -9 -9 -9 -9 -10 -10 -10 -11 -11 -12 -12 -13 -13 -14 -14 -15 -15 -15 -15 -15 -16 -16 -17 -17 -17 -18 -18 -18 -18 -19 -19 -20

GFSNGP_925_temp_063.txt.gz
Temp
21 23 23 23 23 23 23 22 20 21 21 22 22 24 24 24 24 22 22 22 21 20 19 15 14 13 12 12 12 12 11 11 11 11 11 10 10 10 10 9 8 8 7 6
20 22 22 23 24 22 23 23 22 21 21 24 23 24 25 24 23 24 23 22 21 21 19 16 14 12 10 10 11 11 11 10 10 10 9 9 9 8 8 7 7 6 6 5
18 21 22 18 20 22 23 24 22 21 22 23 24 24 24 22 23 23 23 22 21 20 18 16 13 12 10 10 10 10 10 9 8 8 8 8 7 7 6 6 5 5 5 5
14 17 17 21 23 23 23 24 24 25 25 24 24 24 24 22 22 21 21 21 18 18 16 14 13 12 11 10 10 10 9 9 8 8 7 7 6 6 5 5 5 5 5 5
15 17 19 21 23 23 22 22 24 24 24 24 24 22 23 22 22 19 19 17 15 16 14 12 11 11 11 10 10 10 10 9 8 8 8 7 6 6 5 5 5 5 5 4
12 15 16 19 21 23 23 20 23 24 23 23 22 19 19 20 18 17 16 16 16 15 14 13 12 11 11 11 10 10 9 9 8 8 7 6 7 6 6 6 6 5 4 4
12 13 14 19 22 23 20 18 23 23 24 23 20 19 19 17 17 16 16 16 15 15 13 13 12 12 11 10 10 10 9 8 8 8 7 7 7 6 6 5 5 4 2 2
12 12 13 19 20 20 20 20 21 22 23 23 19 17 18 17 16 16 15 14 15 14 13 13 12 12 11 10 10 9 8 8 8 8 7 7 7 6 6 5 5 3 2 -0
14 13 16 19 19 19 18 20 20 20 23 19 17 18 17 16 15 15 14 13 14 13 13 13 12 12 10 9 9 8 8 8 8 7 7 7 6 5 4 4 3 2 1 -0
15 16 17 18 18 17 16 17 18 21 20 20 18 17 16 14 14 14 13 13 14 13 12 12 12 11 9 9 8 8 7 7 7 6 6 6 5 4 3 2 2 1 0 -2
15 17 18 18 18 17 16 16 18 19 22 19 16 16 16 14 13 13 13 14 13 12 11 11 11 10 9 8 8 7 6 6 6 5 4 3 2 2 1 0 1 -0 -1 -2
12 15 16 18 19 18 17 18 19 17 18 20 16 16 14 13 12 12 12 13 12 12 11 10 9 9 8 8 7 6 5 5 4 3 2 1 0 -2 -2 -1 -2 -2 -3 -3
17 18 18 18 19 20 19 18 17 16 16 17 18 15 14 13 12 13 13 12 10 9 8 8 7 7 7 7 6 5 3 3 2 2 1 -1 -2 -2 -5 -5 -4 -4 -4 -5
16 16 16 17 17 16 15 14 14 15 15 16 18 15 12 12 12 10 10 9 7 5 4 3 2 1 3 4 4 3 2 1 1 -0 -0 -1 -2 -2 -3 -4 -5 -6 -6 -6
13 14 14 16 15 15 14 13 12 12 12 13 14 12 11 10 8 6 5 4 3 2 1 1 -0 0 1 1 0 -0 -1 -1 -1 -2 -2 -2 -3 -3 -4 -5 -5 -5 -6 -7
11 12 13 12 12 13 13 12 11 10 10 10 10 7 5 4 3 2 2 3 0 -1 -2 -2 -2 -2 -1 -1 -2 -3 -3 -3 -4 -5 -5 -6 -6 -6 -6 -6 -5 -5 -6 -7
9 9 10 10 11 11 10 9 8 7 5 4 2 0 -1 -2 -3 -4 -4 -4 -5 -5 -5 -5 -5 -3 -2 -2 -2 -4 -5 -6 -6 -6 -7 -7 -7 -7 -7 -7 -7 -7 -8 -8
6 5 5 5 5 5 3 3 2 1 0 -2 -2 -3 -3 -4 -4 -5 -6 -6 -6 -6 -5 -3 -3 -3 -4 -5 -6 -7 -7 -7 -7 -7 -8 -8 -8 -8 -8 -8 -8 -8 -9 -10
2 2 2 2 2 1 0 -1 -2 -3 -3 -4 -4 -5 -6 -6 -6 -6 -6 -6 -7 -7 -8 -7 -7 -6 -7 -7 -7 -8 -8 -8 -9 -9 -9 -9 -9 -9 -9 -9 -10 -10 -10 -10
-0 -1 -1 -2 -2 -2 -2 -3 -4 -4 -4 -5 -5 -5 -5 -5 -6 -7 -8 -8 -8 -9 -8 -8 -8 -9 -9 -9 -9 -9 -9 -9 -9 -10 -10 -10 -10 -10 -10 -10 -11 -11 -11 -12
-2 -3 -3 -3 -4 -4 -4 -4 -5 -5 -5 -5 -6 -6 -7 -7 -7 -8 -8 -8 -9 -9 -9 -9 -10 -10 -10 -10 -10 -10 -10 -10 -10 -10 -11 -11 -11 -11 -11 -12 -12 -12 -13 -13
-3 -4 -4 -4 -4 -5 -5 -5 -5 -6 -6 -6 -6 -7 -7 -8 -8 -9 -9 -9 -9 -9 -10 -10 -11 -11 -11 -10 -10 -10 -11 -11 -11 -11 -12 -12 -12 -12 -12 -13 -13 -14 -14 -14
-4 -4 -4 -5 -5 -5 -5 -6 -6 -6 -6 -6 -6 -7 -7 -7 -8 -8 -8 -9 -9 -10 -11 -11 -12 -11 -11 -11 -11 -11 -12 -12 -12 -13 -13 -13 -13 -13 -13 -14 -14 -14 -15 -15
-4 -4 -5 -5 -5 -5 -5 -6 -6 -6 -7 -7 -7 -7 -8 -8 -9 -9 -9 -9 -10 -11 -11 -12 -12 -12 -12 -12 -12 -13 -13 -13 -13 -14 -14 -14 -15 -15 -15 -16 -15 -16 -16 -16
-6 -6 -5 -5 -5 -5 -5 -6 -7 -7 -8 -8 -8 -9 -9 -9 -9 -10 -10 -11 -11 -11 -12 -12 -13 -13 -13 -13 -14 -14 -14 -14 -15 -15 -15 -16 -16 -16 -16 -17 -17 -17 -17 -18
-7 -7 -8 -9 -8 -8 -8 -8 -7 -8 -8 -9 -9 -10 -10 -10 -10 -10 -11 -11 -12 -12 -13 -13 -14 -14 -14 -14 -15 -15 -15 -16 -16 -17 -17 -17 -17 -18 -18 -18 -19 -19 -19 -20
-9 -9 -9 -9 -10 -11 -10 -10 -10 -10 -10 -11 -11 -12 -12 -11 -12 -12 -12 -13 -13 -14 -14 -15 -15 -15 -16 -16 -16 -17 -17 -17 -17 -18 -18 -18 -19 -19 -20 -20 -20 -20 -21 -21

GFSNGP_925_temp_066.txt.gz
Temp
20 21 21 21 21 22 21 20 18 19 19 20 21 22 21 21 21 20 20 20 19 17 14 13 14 17 18 17 17 17 15 14 14 14 13 11 12 12 12 12 12 11 10 9
18 20 22 22 22 21 21 21 20 21 20 22 23 21 21 21 23 22 21 20 19 17 14 13 12 12 13 14 14 13 12 11 11 11 10 10 10 10 11 10 9 8 7 7
16 18 20 18 19 20 21 21 21 19 20 22 23 21 21 23 22 21 21 20 18 18 15 13 12 11 11 12 12 11 10 9 9 8 8 9 9 8 7 7 7 6 6 6
12 15 16 19 21 21 20 22 22 22 21 22 22 23 21 22 22 21 20 19 18 18 15 13 11 10 10 10 10 10 9 8 8 8 7 7 6 6 6 6 6 6 5 5
12 15 18 18 20 20 21 20 21 22 22 22 22 21 22 21 20 20 18 17 16 18 13 11 10 10 10 9 9 9 9 8 7 7 6 6 5 5 6 5 5 5 5 4
11 13 15 18 19 22 22 17 21 22 22 22 20 18 17 20 18 17 16 14 13 13 11 10 10 10 9 9 9 9 8 8 8 7 6 5 6 6 5 5 4 4 4 4
11 12 13 15 18 21 19 19 21 22 22 21 19 18 19 17 17 16 15 13 13 12 12 11 10 10 9 9 9 9 8 7 7 6 6 6 6 6 5 4 4 3 3 1
11 12 12 18 19 18 16 19 19 18 18 18 19 18 16 16 15 14 13 12 13 11 11 10 11 10 9 9 8 8 8 7 6 6 6 6 6 5 5 4 3 1 0 -1
12 13 15 17 17 15 16 16 16 17 17 17 16 17 15 15 14 14 13 12 12 11 10 11 11 11 9 8 8 8 7 7 7 7 6 7 6 5 3 3 2 -1 -2 -3
14 16 16 16 19 18 16 17 17 17 17 17 17 16 16 14 13 12 11 11 11 11 10 9 10 10 9 8 8 7 7 6 6 6 6 5 4 4 3 2 -1 -2 -3 -4
14 15 17 17 16 17 18 18 17 18 17 16 16 16 14 13 13 13 12 11 11 11 10 9 9 8 8 8 8 7 6 5 4 4 4 2 2 2 2 1 2 0 -2 -2
12 15 15 16 19 18 16 17 18 17 16 16 16 16 14 13 13 12 11 10 10 9 8 7 8 7 7 7 8 7 4 3 3 2 1 0 -0 -2 -1 -1 -0 -0 -1 -2
12 13 14 16 16 17 16 16 17 16 15 15 14 14 13 11 10 10 10 10 9 6 6 5 5 5 6 6 7 6 3 2 1 1 -1 -1 -2 -2 -4 -4 -4 -4 -4 -5
9 11 14 14 15 14 13 13 13 13 13 13 13 14 11 9 9 9 7 6 4 3 2 2 2 2 3 5 4 2 1 1 -0 -1 -1 -2 -2 -3 -4 -5 -5 -6 -6 -6
8 10 11 11 11 12 12 12 11 10 9 8 8 8 8 6 4 3 2 2 1 1 -0 -1 -2 -2 -1 1 -0 -1 -2 -3 -2 -2 -3 -3 -4 -4 -5 -5 -5 -5 -6 -7
7 8 8 9 9 9 9 9 8 5 5 3 2 1 1 1 -0 -1 -1 -0 -1 -3 -3 -4 -4 -4 -2 -1 -2 -3 -3 -2 -2 -3 -4 -5 -6 -6 -6 -6 -6 -7 -7 -7
6 5 5 6 6 4 4 4 3 2 1 -0 -1 -2 -2 -3 -3 -4 -5 -5 -5 -5 -5 -5 -6 -4 -3 -3 -3 -4 -4 -5 -6 -6 -6 -6 -7 -7 -7 -7 -8 -8 -8 -9
3 3 3 3 3 2 1 -0 -1 -1 -2 -3 -4 -4 -5 -5 -5 -6 -6 -6 -7 -7 -6 -6 -6 -5 -5 -5 -6 -6 -6 -7 -7 -7 -8 -8 -8 -9 -9 -9 -9 -9 -10 -10
0 -0 -0 -0 -1 -1 -2 -3 -3 -4 -4 -5 -5 -5 -5 -5 -6 -7 -7 -8 -8 -8 -9 -7 -7 -7 -7 -7 -7 -7 -8 -8 -8 -9 -9 -9 -10 -9 -10 -10 -10 -10 -11 -11
-2 -3 -3 -3 -3 -3 -3 -4 -4 -5 -5 -5 -6 -7 -7 -8 -8 -8 -9 -9 -9 -9 -9 -8 -9 -9 -9 -9 -9 -9 -9 -9 -10 -10 -10 -10 -11 -11 -11 -11 -11 -12 -12 -12
-4 -4 -4 -4 -5 -5 -5 -5 -5 -6 -6 -7 -7 -7 -8 -8 -8 -8 -9 -9 -9 -10 -10 -10 -10 -10 -10 -10 -10 -10 -10 -11 -11 -11 -11 -12 -12 -12 -12 -12 -13 -13 -13 -14
-5 -5 -5 -5 -5 -6 -6 -6 -6 -6 -7 -7 -8 -8 -8 -9 -9 -9 -9 -10 -11 -10 -11 -11 -11 -10 -11 -11 -11 -11 -12 -12 -12 -12 -13 -13 -13 -13 -14 -14 -14 -14 -15 -15
-5 -5 -5 -5 -6 -6 -6 -6 -7 -7 -7 -7 -8 -8 -8 -8 -8 -9 -10 -11 -11 -12 -12 -12 -12 -11 -12 -12 -13 -13 -13 -13 -14 -14 -14 -15 -15 -15 -15 -16 -16 -16 -16 -16
-5 -5 -5 -6 -6 -6 -7 -7 -7 -8 -8 -8 -9 -9 -9 -10 -10 -11 -11 -12 -12 -12 -13 -12 -12 -13 -13 -13 -14 -14 -14 -15 -15 -15 -16 -16 -16 -16 -16 -17 -17 -17 -17 -18
-8 -8 -8 -7 -7 -7 -7 -8 -8 -9 -9 -9 -9 -10 -10 -11 -11 -12 -12 -12 -12 -13 -13 -13 -14 -14 -14 -15 -15 -16 -16 -16 -17 -17 -17 -17 -18 -18 -18 -18 -19 -19 -19 -20
-9 -9 -10 -10 -9 -9 -9 -9 -10 -10 -10 -11 -12 -12 -11 -12 -12 -12 -13 -13 -14 -14 -15 -15 -15 -16 -16 -16 -17 -17 -17 -17 -18 -18 -19 -19 -19 -19 -20 -20 -20 -21 -21 -21
-10 -10 -10 -11 -11 -12 -12 -12 -12 -13 -14 -14 -15 -14 -13 -13 -14 -14 -14 -15 -15 -16 -16 -17 -17 -17 -17 -18 -18 -18 -18 -19 -19 -19 -19 -20 -20 -21 -21 -21 -22 -22 -22 -23

GFSNGP_925_temp_069.txt.gz
Temp
15 17 19 20 20 20 20 20 18 20 18 19 20 20 20 20 19 19 19 18 17 17 16 17 18 18 17 17 14 14 14 14 14 14 14 14 15 15 13 13 13 12 11 10
14 17 18 19 20 20 19 20 20 20 18 19 20 19 20 19 20 20 20 18 18 17 15 14 15 16 17 16 15 15 14 14 14 13 14 13 14 12 11 11 11 11 10 10
12 14 15 15 18 20 21 20 20 18 19 20 20 20 19 20 20 20 19 20 17 17 16 14 14 15 16 15 15 14 13 12 11 12 12 12 12 11 10 10 9 9 8 8
12 12 14 16 18 20 19 21 20 20 20 20 20 20 20 18 19 19 19 18 18 18 15 14 13 12 13 12 12 11 11 10 10 10 10 9 9 8 8 8 8 7 7 7
11 13 14 16 18 19 19 19 20 19 20 20 20 20 18 19 17 19 19 20 18 19 16 12 11 11 11 11 11 10 10 10 9 9 8 7 7 7 7 6 6 6 5 5
11 12 12 16 16 18 18 17 19 22 20 19 20 18 16 18 18 16 16 14 13 13 11 11 10 10 10 10 10 10 9 9 8 8 8 7 7 6 6 6 5 5 4 4
11 12 11 14 16 17 15 15 19 19 19 19 19 17 19 16 17 16 14 13 12 11 11 10 10 10 9 9 9 9 9 8 8 7 7 6 6 5 4 4 4 3 3 2
11 11 11 15 14 14 14 15 16 16 15 16 16 16 16 15 15 14 13 11 12 11 10 9 10 10 8 9 9 9 8 7 7 6 6 5 5 3 3 3 2 1 0 -0
10 12 14 15 13 13 13 14 16 16 16 15 16 16 15 14 14 14 12 11 11 10 9 9 9 10 8 8 9 8 7 6 5 5 5 4 4 3 2 2 0 -2 -2 -3
12 14 14 15 15 16 16 15 16 16 15 16 15 14 14 14 14 13 11 10 10 9 8 8 9 9 9 8 8 7 5 5 5 5 4 4 4 4 2 0 -2 -3 -4 -5
13 15 15 15 15 15 16 16 16 16 16 17 17 15 14 14 13 13 11 10 10 9 8 7 8 8 8 7 7 5 5 4 3 3 3 1 1 0 1 -0 0 -1 -3 -3
10 11 10 15 16 15 15 16 15 15 17 16 16 16 15 14 12 11 10 9 9 8 7 7 7 6 6 6 7 5 3 2 1 1 -0 -1 -2 -3 -1 -0 -0 0 -0 -1
8 8 8 11 13 13 14 15 16 16 15 14 14 16 19 13 11 9 9 8 7 5 5 5 5 5 5 5 5 4 2 0 -1 -1 -2 -3 -3 -4 -6 -5 -3 -3 -3 -3
7 8 10 9 9 10 10 11 11 10 9 7 8 10 10 8 6 5 3 3 2 1 1 1 1 1 2 4 4 1 -0 -2 -2 -3 -3 -2 -3 -3 -4 -5 -6 -7 -6 -6
6 7 7 8 7 6 7 8 7 5 4 3 3 4 4 2 1 1 0 -1 -1 -2 -2 -2 -3 -3 -1 -1 -2 -3 -3 -4 -4 -4 -4 -4 -4 -4 -4 -5 -6 -6 -7 -7
5 6 6 6 5 4 4 3 3 1 1 -0 -1 -1 -2 -3 -3 -4 -4 -3 -3 -4 -5 -4 -4 -4 -4 -3 -4 -3 -3 -3 -2 -3 -4 -5 -5 -5 -5 -6 -6 -6 -6 -7
3 5 4 4 4 2 1 0 -0 -1 -1 -2 -2 -3 -3 -4 -4 -5 -5 -5 -5 -5 -5 -5 -5 -3 -3 -2 -3 -4 -5 -5 -5 -6 -6 -6 -6 -7 -7 -7 -8 -8 -8 -8
2 1 1 1 1 0 -1 -2 -2 -2 -3 -4 -5 -5 -5 -5 -5 -6 -7 -7 -7 -7 -7 -7 -6 -5 -5 -5 -5 -6 -6 -7 -7 -8 -8 -8 -8 -9 -9 -9 -9 -9 -10 -10
-1 -2 -2 -2 -2 -2 -3 -3 -4 -4 -5 -5 -6 -6 -7 -7 -7 -8 -8 -8 -8 -9 -9 -8 -7 -7 -7 -7 -7 -8 -8 -9 -9 -10 -10 -10 -10 -10 -10 -10 -11 -11 -11 -11
-3 -4 -4 -4 -4 -4 -4 -5 -6 -6 -6 -7 -7 -8 -8 -8 -9 -9 -9 -10 -10 -10 -9 -9 -9 -9 -9 -9 -9 -9 -10 -10 -11 -11 -11 -11 -11 -12 -12 -12 -12 -12 -12 -13
-5 -5 -5 -5 -5 -6 -6 -7 -7 -7 -8 -8 -8 -8 -8 -9 -9 -10 -10 -10 -11 -10 -10 -10 -10 -10 -11 -11 -11 -11 -11 -12 -12 -12 -13 -13 -13 -13 -14 -14 -14 -14 -14 -15
-5 -5 -6 -6 -6 -6 -7 -7 -7 -8 -8 -8 -8 -9 -9 -10 -11 -11 -11 -11 -12 -11 -11 -11 -11 -11 -12 -12 -12 -13 -13 -13 -13 -14 -14 -14 -15 -15 -15 -15 -16 -16 -16 -16
-5 -6 -6 -7 -7 -7 -8 -8 -8 -8 -9 -9 -9 -10 -10 -10 -11 -11 -12 -12 -12 -12 -12 -13 -13 -13 -13 -13 -13 -14 -14 -14 -15 -15 -16 -16 -16 -16 -17 -17 -17 -17 -17 -18
-7 -6 -7 -7 -7 -7 -8 -8 -9 -9 -9 -10 -10 -10 -11 -12 -12 -13 -13 -13 -13 -13 -14 -14 -14 -14 -14 -15 -15 -15 -16 -16 -16 -17 -17 -17 -17 -18 -18 -18 -19 -19 -19 -19
-9 -9 -8 -8 -8 -8 -9 -9 -10 -11 -11 -11 -11 -11 -12 -12 -13 -14 -14 -14 -14 -14 -15 -15 -15 -15 -16 -16 -16 -17 -17 -17 -18 -18 -18 -18 -19 -19 -20 -20 -20 -21 -21 -21
-10 -10 -11 -11 -10 -10 -11 -11 -12 -12 -13 -13 -14 -14 -14 -14 -14 -14 -14 -15 -15 -16 -16 -16 -17 -17 -17 -17 -18 -18 -18 -19 -19 -19 -20 -20 -20 -21 -21 -21 -22 -22 -22 -23
-11 -11 -11 -12 -13 -13 -14 -14 -14 -15 -15 -15 -15 -15 -15 -15 -15 -15 -15 -16 -17 -17 -17 -18 -18 -18 -18 -19 -19 -19 -20 -20 -20 -20 -21 -21 -21 -22 -22 -22 -22 -23 -23 -23

GFSNGP_925_temp_075.txt.gz
Temp
14 16 16 16 16 16 16 17 17 19 20 21 22 23 23 23 21 22 21 20 21 20 19 18 17 15 14 14 12 12 12 12 12 12 12 12 12 11 12 12 12 12 13 13
13 16 17 15 16 17 17 18 18 19 19 21 22 22 19 21 21 21 21 21 22 20 19 18 17 16 15 14 13 13 13 13 13 12 12 12 12 12 12 12 12 12 13 12
13 14 15 14 16 17 18 18 18 18 19 21 21 21 20 20 21 21 21 21 21 21 19 18 17 16 15 15 13 13 13 13 13 13 12 12 12 12 12 12 12 11 11 11
11 11 13 17 17 17 17 18 19 18 18 19 20 21 22 21 21 21 20 20 20 20 20 20 18 17 17 15 14 13 13 13 13 13 13 13 12 12 12 12 12 11 11 11
12 12 15 17 18 17 17 18 15 16 16 17 17 18 19 19 18 20 20 19 19 19 19 19 18 17 15 15 15 14 14 13 13 13 13 11 11 11 11 11 10 10 10 10
10 12 13 16 16 16 17 16 15 15 15 15 18 17 18 17 15 16 17 17 17 17 16 17 16 14 15 15 15 14 14 13 13 12 11 11 11 11 11 10 9 8 7 7
11 11 13 14 15 16 15 16 15 15 16 16 16 17 16 15 15 14 14 14 13 14 14 14 13 13 14 14 14 13 11 11 11 11 11 10 10 9 8 7 6 5 4 3
11 11 12 14 15 16 16 15 14 17 17 16 15 15 16 16 15 15 14 13 12 12 10 11 12 13 13 12 10 11 11 10 10 10 9 8 8 6 5 4 3 1 0 -1
13 14 14 14 15 15 15 15 15 15 16 17 16 16 15 16 15 15 14 13 10 10 9 9 10 11 10 9 10 10 9 8 7 7 6 6 6 4 3 2 1 -1 -2 -3
11 14 14 14 14 12 11 11 12 13 14 15 15 15 15 15 15 15 14 13 11 9 9 8 8 9 8 8 9 8 6 5 5 5 4 3 3 2 1 0 -1 -2 -3 -4
12 13 12 14 11 9 9 10 10 11 13 14 14 14 14 14 13 13 12 10 10 9 8 7 6 6 7 7 7 5 4 3 2 2 2 1 0 0 -0 -1 -1 -2 -3 -4
12 8 8 9 9 8 8 8 8 7 7 7 6 8 9 7 7 7 8 8 8 6 5 4 4 4 5 5 6 5 2 1 0 -0 -1 -2 -2 -3 -2 -1 -1 -1 -2 -3
8 8 8 8 8 6 6 6 6 5 4 4 4 4 3 3 2 2 2 2 2 2 1 1 0 1 1 2 3 2 0 -1 -2 -2 -2 -3 -4 -4 -5 -5 -4 -3 -3 -3
6 6 8 8 7 5 4 4 4 3 1 1 1 0 0 0 -0 -1 -1 -1 -1 -2 -2 -2 -1 -1 0 0 -0 -2 -3 -3 -4 -4 -4 -5 -5 -5 -5 -5 -6 -6 -6 -6
3 4 3 6 5 4 3 3 2 0 -0 -1 -2 -2 -1 -2 -3 -3 -3 -3 -3 -3 -3 -3 -3 -4 -2 -2 -1 -1 -2 -4 -4 -4 -4 -4 -5 -5 -5 -6 -6 -6 -6 -7
3 4 4 3 3 1 1 0 0 -1 -1 -2 -2 -3 -4 -4 -5 -5 -6 -6 -5 -5 -6 -6 -5 -5 -4 -4 -5 -5 -5 -5 -5 -5 -5 -5 -5 -5 -5 -5 -6 -6 -6 -8
1 2 1 1 1 -0 -1 -2 -2 -2 -3 -3 -3 -4 -5 -5 -6 -7 -7 -8 -8 -8 -8 -7 -7 -6 -6 -6 -6 -7 -7 -7 -7 -7 -7 -7 -7 -7 -7 -7 -8 -8 -9 -10
-1 -1 -1 -2 -2 -2 -3 -3 -4 -4 -5 -6 -7 -7 -7 -7 -7 -8 -8 -8 -9 -9 -9 -9 -8 -7 -7 -7 -7 -8 -8 -8 -8 -9 -9 -9 -9 -9 -9 -9 -9 -10 -10 -11
-3 -3 -3 -3 -4 -4 -4 -5 -6 -7 -7 -8 -9 -9 -9 -9 -9 -9 -9 -9 -9 -9 -10 -10 -9 -9 -9 -9 -9 -9 -10 -10 -10 -10 -10 -11 -11 -11 -11 -11 -11 -12 -12 -12
-5 -5 -5 -6 -6 -6 -6 -7 -8 -8 -9 -9 -9 -10 -10 -10 -10 -10 -11 -11 -12 -11 -11 -11 -10 -11 -11 -10 -10 -11 -11 -11 -12 -12 -13 -13 -13 -13 -13 -14 -14 -14 -14 -14
-6 -7 -7 -7 -7 -8 -8 -9 -9 -10 -10 -10 -11 -11 -11 -12 -11 -11 -11 -12 -13 -13 -12 -12 -12 -12 -12 -12 -12 -13 -13 -14 -14 -14 -14 -15 -15 -15 -16 -16 -16 -16 -16 -16
-7 -7 -8 -8 -8 -9 -9 -10 -10 -10 -10 -11 -11 -11 -11 -12 -13 -14 -14 -14 -14 -14 -14 -14 -13 -13 -13 -13 -14 -14 -15 -16 -16 -16 -16 -17 -17 -17 -18 -18 -18 -19 -19 -19
-7 -8 -8 -9 -9 -9 -10 -10 -11 -11 -11 -12 -12 -13 -13 -14 -14 -13 -14 -15 -15 -15 -15 -15 -14 -14 -14 -15 -15 -16 -17 -17 -18 -18 -18 -18 -19 -19 -19 -20 -20 -20 -20 -20
-8 -8 -9 -9 -10 -10 -10 -11 -11 -12 -12 -12 -13 -13 -13 -14 -15 -15 -16 -15 -15 -16 -16 -16 -16 -16 -16 -17 -17 -17 -18 -18 -18 -19 -19 -19 -20 -20 -21 -21 -21 -22 -21 -21
-10 -10 -10 -10 -10 -10 -11 -12 -12 -13 -13 -14 -14 -15 -15 -15 -16 -17 -17 -16 -16 -17 -17 -17 -17 -17 -17 -18 -18 -18 -19 -19 -19 -20 -20 -20 -21 -21 -21 -21 -21 -21 -21 -22
-11 -11 -12 -12 -12 -12 -12 -13 -13 -13 -14 -15 -16 -17 -16 -16 -16 -16 -17 -17 -17 -18 -18 -18 -19 -19 -19 -19 -19 -20 -20 -20 -20 -21 -21 -21 -21 -21 -22 -22 -22 -22 -22 -22
-12 -12 -12 -13 -14 -15 -15 -15 -15 -16 -16 -17 -17 -18 -17 -17 -17 -17 -18 -18 -19 -19 -19 -19 -19 -20 -20 -20 -20 -20 -21 -21 -21 -21 -22 -22 -22 -22 -22 -22 -22 -22 -22 -23